Wetterdaten: Dienstag, 11.10.2022
Datum Zeit Temp. 2m Temp +5 cm Feuchte A. Luftdruck Regen Wind Richtung Richtung Sonnenschein UV Solar Taupunkt Windchill Windben
11.10.2022 00:00 8,4 C 8,3 C 91 % 1024,8 hPa 0,0 l/m 7,4 km/h (2 Bft) N 360 0 min 0,0 UV-I 0 W/m 7,0 C 7,6 C 14,5 km/h (3 Bft)
11.10.2022 00:03 8,4 C 8,3 C 91 % 1024,8 hPa 0,0 l/m 9,5 km/h (2 Bft) N-NO 13 0 min 0,0 UV-I 0 W/m 7,0 C 6,1 C 16,1 km/h (3 Bft)
11.10.2022 00:06 8,4 C 8,3 C 91 % 1024,9 hPa 0,0 l/m 10,3 km/h (2 Bft) N 355 0 min 0,0 UV-I 0 W/m 7,0 C 5,6 C 14,5 km/h (3 Bft)
11.10.2022 00:09 8,4 C 8,3 C 91 % 1024,9 hPa 0,0 l/m 5,9 km/h (2 Bft) N-NW 340 0 min 0,0 UV-I 0 W/m 7,0 C 8,4 C 12,9 km/h (3 Bft)
11.10.2022 00:12 8,4 C 8,3 C 91 % 1024,8 hPa 0,0 l/m 10,1 km/h (2 Bft) N-NW 347 0 min 0,0 UV-I 0 W/m 7,0 C 5,8 C 19,3 km/h (3 Bft)
11.10.2022 00:15 8,4 C 8,3 C 91 % 1024,8 hPa 0,0 l/m 13,8 km/h (3 Bft) N 355 0 min 0,0 UV-I 0 W/m 7,0 C 3,8 C 20,9 km/h (4 Bft)
11.10.2022 00:18 8,4 C 8,3 C 90 % 1024,8 hPa 0,0 l/m 17,9 km/h (3 Bft) N 350 0 min 0,0 UV-I 0 W/m 6,9 C 2,0 C 24,1 km/h (4 Bft)
11.10.2022 00:21 8,4 C 8,3 C 90 % 1024,8 hPa 0,0 l/m 16,7 km/h (3 Bft) NW 315 0 min 0,0 UV-I 0 W/m 6,9 C 2,5 C 22,5 km/h (4 Bft)
11.10.2022 00:24 8,4 C 8,3 C 90 % 1024,9 hPa 0,0 l/m 17,2 km/h (3 Bft) N-NW 336 0 min 0,0 UV-I 0 W/m 6,9 C 2,3 C 25,7 km/h (4 Bft)
11.10.2022 00:27 8,4 C 8,3 C 90 % 1024,8 hPa 0,0 l/m 16,4 km/h (3 Bft) N-NW 346 0 min 0,0 UV-I 0 W/m 6,9 C 2,6 C 25,7 km/h (4 Bft)
11.10.2022 00:30 8,4 C 8,3 C 90 % 1024,8 hPa 0,0 l/m 17,8 km/h (3 Bft) N-NW 340 0 min 0,0 UV-I 0 W/m 6,9 C 2,0 C 27,4 km/h (4 Bft)
11.10.2022 00:33 8,4 C 7,8 C 90 % 1024,9 hPa 0,0 l/m 14,3 km/h (3 Bft) N 355 0 min 0,0 UV-I 0 W/m 6,9 C 3,5 C 20,9 km/h (4 Bft)
11.10.2022 00:36 8,3 C 7,8 C 90 % 1024,9 hPa 0,0 l/m 13,7 km/h (3 Bft) N-NW 347 0 min 0,0 UV-I 0 W/m 6,8 C 3,7 C 24,1 km/h (4 Bft)
11.10.2022 00:39 8,2 C 7,2 C 90 % 1025,0 hPa 0,0 l/m 12,6 km/h (3 Bft) N-NW 341 0 min 0,0 UV-I 0 W/m 6,7 C 4,1 C 19,3 km/h (3 Bft)
11.10.2022 00:42 8,2 C 7,2 C 89 % 1024,9 hPa 0,0 l/m 15,0 km/h (3 Bft) N-NW 330 0 min 0,0 UV-I 0 W/m 6,5 C 3,0 C 25,7 km/h (4 Bft)
11.10.2022 00:45 8,1 C 6,7 C 89 % 1024,9 hPa 0,0 l/m 8,4 km/h (2 Bft) N 350 0 min 0,0 UV-I 0 W/m 6,4 C 6,6 C 17,7 km/h (3 Bft)
11.10.2022 00:48 8,1 C 6,7 C 89 % 1025,0 hPa 0,0 l/m 10,9 km/h (2 Bft) N 360 0 min 0,0 UV-I 0 W/m 6,4 C 4,9 C 17,7 km/h (3 Bft)
11.10.2022 00:51 8,0 C 6,7 C 89 % 1024,9 hPa 0,0 l/m 10,6 km/h (2 Bft) N-NW 346 0 min 0,0 UV-I 0 W/m 6,3 C 5,0 C 16,1 km/h (3 Bft)
11.10.2022 00:54 7,9 C 6,7 C 89 % 1025,0 hPa 0,0 l/m 9,9 km/h (2 Bft) N 355 0 min 0,0 UV-I 0 W/m 6,2 C 5,3 C 16,1 km/h (3 Bft)
11.10.2022 00:57 7,9 C 6,7 C 89 % 1025,0 hPa 0,0 l/m 9,5 km/h (2 Bft) N 360 0 min 0,0 UV-I 0 W/m 6,2 C 5,6 C 14,5 km/h (3 Bft)
11.10.2022 01:00 7,8 C 6,1 C 89 % 1025,0 hPa 0,0 l/m 8,1 km/h (2 Bft) N 355 0 min 0,0 UV-I 0 W/m 6,1 C 6,5 C 12,9 km/h (3 Bft)
11.10.2022 01:03 7,7 C 6,1 C 89 % 1025,1 hPa 0,0 l/m 7,9 km/h (2 Bft) N 11 0 min 0,0 UV-I 0 W/m 6,0 C 6,5 C 14,5 km/h (3 Bft)
11.10.2022 01:06 7,6 C 6,1 C 89 % 1025,1 hPa 0,0 l/m 6,2 km/h (2 Bft) N 5 0 min 0,0 UV-I 0 W/m 5,9 C 7,6 C 11,3 km/h (2 Bft)
11.10.2022 01:09 7,6 C 5,6 C 89 % 1025,2 hPa 0,0 l/m 6,7 km/h (2 Bft) N 11 0 min 0,0 UV-I 0 W/m 5,9 C 7,4 C 11,3 km/h (2 Bft)
11.10.2022 01:12 7,4 C 5,6 C 89 % 1025,2 hPa 0,0 l/m 6,0 km/h (2 Bft) N-NO 21 0 min 0,0 UV-I 0 W/m 5,7 C 7,4 C 12,9 km/h (3 Bft)
11.10.2022 01:15 7,3 C 5,6 C 89 % 1025,2 hPa 0,0 l/m 3,5 km/h (1 Bft) N-NO 20 0 min 0,0 UV-I 0 W/m 5,6 C 7,3 C 6,4 km/h (2 Bft)
11.10.2022 01:18 7,2 C 5,0 C 90 % 1025,1 hPa 0,0 l/m 3,9 km/h (1 Bft) N-NO 20 0 min 0,0 UV-I 0 W/m 5,7 C 7,2 C 6,4 km/h (2 Bft)
11.10.2022 01:21 7,1 C 5,0 C 90 % 1025,1 hPa 0,0 l/m 4,3 km/h (1 Bft) N-NO 19 0 min 0,0 UV-I 0 W/m 5,6 C 7,1 C 6,4 km/h (2 Bft)
11.10.2022 01:24 7,0 C 5,0 C 90 % 1025,1 hPa 0,0 l/m 4,2 km/h (1 Bft) N-NO 19 0 min 0,0 UV-I 0 W/m 5,5 C 7,0 C 6,4 km/h (2 Bft)
11.10.2022 01:27 6,9 C 5,0 C 90 % 1025,2 hPa 0,0 l/m 4,9 km/h (1 Bft) N-NO 21 0 min 0,0 UV-I 0 W/m 5,4 C 6,9 C 8,0 km/h (2 Bft)
11.10.2022 01:30 7,0 C 5,6 C 91 % 1025,3 hPa 0,0 l/m 5,7 km/h (1 Bft) N-NO 26 0 min 0,0 UV-I 0 W/m 5,6 C 7,0 C 11,3 km/h (2 Bft)
11.10.2022 01:33 7,1 C 5,6 C 91 % 1025,3 hPa 0,0 l/m 6,4 km/h (2 Bft) N-NO 33 0 min 0,0 UV-I 0 W/m 5,7 C 7,1 C 9,7 km/h (2 Bft)
11.10.2022 01:36 7,1 C 5,6 C 91 % 1025,3 hPa 0,0 l/m 5,8 km/h (2 Bft) NO 36 0 min 0,0 UV-I 0 W/m 5,7 C 7,1 C 11,3 km/h (2 Bft)
11.10.2022 01:39 7,2 C 6,1 C 91 % 1025,2 hPa 0,0 l/m 6,5 km/h (2 Bft) NO 40 0 min 0,0 UV-I 0 W/m 5,8 C 7,1 C 11,3 km/h (2 Bft)
11.10.2022 01:42 7,2 C 5,6 C 90 % 1025,3 hPa 0,0 l/m 4,1 km/h (1 Bft) NO 53 0 min 0,0 UV-I 0 W/m 5,7 C 7,2 C 8,0 km/h (2 Bft)
11.10.2022 01:45 7,1 C 5,6 C 90 % 1025,4 hPa 0,0 l/m 4,1 km/h (1 Bft) NO 46 0 min 0,0 UV-I 0 W/m 5,6 C 7,1 C 8,0 km/h (2 Bft)
11.10.2022 01:48 6,9 C 5,0 C 90 % 1025,4 hPa 0,0 l/m 4,4 km/h (1 Bft) N-NO 30 0 min 0,0 UV-I 0 W/m 5,4 C 6,9 C 6,4 km/h (2 Bft)
11.10.2022 01:51 6,8 C 5,0 C 90 % 1025,4 hPa 0,0 l/m 2,2 km/h (1 Bft) N-NO 30 0 min 0,0 UV-I 0 W/m 5,3 C 6,8 C 4,8 km/h (1 Bft)
11.10.2022 01:54 6,7 C 5,0 C 91 % 1025,4 hPa 0,0 l/m 2,1 km/h (1 Bft) N-NO 30 0 min 0,0 UV-I 0 W/m 5,3 C 6,7 C 3,2 km/h (1 Bft)
11.10.2022 01:57 6,7 C 4,4 C 91 % 1025,4 hPa 0,0 l/m 4,4 km/h (1 Bft) N-NO 26 0 min 0,0 UV-I 0 W/m 5,3 C 6,7 C 6,4 km/h (2 Bft)
11.10.2022 02:00 6,7 C 4,4 C 91 % 1025,5 hPa 0,0 l/m 4,5 km/h (1 Bft) N-NO 23 0 min 0,0 UV-I 0 W/m 5,3 C 6,7 C 6,4 km/h (2 Bft)
11.10.2022 02:03 6,6 C 4,4 C 91 % 1025,6 hPa 0,0 l/m 3,5 km/h (1 Bft) N-NO 23 0 min 0,0 UV-I 0 W/m 5,2 C 6,6 C 6,4 km/h (2 Bft)
11.10.2022 02:06 6,6 C 4,4 C 91 % 1025,5 hPa 0,0 l/m 4,8 km/h (1 Bft) N-NO 22 0 min 0,0 UV-I 0 W/m 5,2 C 6,6 C 6,4 km/h (2 Bft)
11.10.2022 02:09 6,4 C 3,9 C 91 % 1025,6 hPa 0,0 l/m 3,7 km/h (1 Bft) N-NO 22 0 min 0,0 UV-I 0 W/m 5,0 C 6,4 C 4,8 km/h (1 Bft)
11.10.2022 02:12 6,4 C 3,9 C 91 % 1025,6 hPa 0,0 l/m 4,7 km/h (1 Bft) N-NO 21 0 min 0,0 UV-I 0 W/m 5,0 C 6,4 C 6,4 km/h (2 Bft)
11.10.2022 02:15 6,4 C 3,9 C 91 % 1025,7 hPa 0,0 l/m 4,1 km/h (1 Bft) N-NO 21 0 min 0,0 UV-I 0 W/m 5,0 C 6,4 C 6,4 km/h (2 Bft)
11.10.2022 02:18 6,3 C 3,9 C 91 % 1025,7 hPa 0,0 l/m 5,3 km/h (1 Bft) N-NO 25 0 min 0,0 UV-I 0 W/m 4,9 C 6,3 C 8,0 km/h (2 Bft)
11.10.2022 02:21 6,2 C 3,9 C 91 % 1025,7 hPa 0,0 l/m 3,7 km/h (1 Bft) N-NO 26 0 min 0,0 UV-I 0 W/m 4,8 C 6,2 C 4,8 km/h (1 Bft)
11.10.2022 02:24 6,1 C 3,9 C 91 % 1025,7 hPa 0,0 l/m 3,6 km/h (1 Bft) N-NO 26 0 min 0,0 UV-I 0 W/m 4,7 C 6,1 C 4,8 km/h (1 Bft)
11.10.2022 02:27 6,1 C 3,9 C 91 % 1025,6 hPa 0,0 l/m 4,1 km/h (1 Bft) N-NO 26 0 min 0,0 UV-I 0 W/m 4,7 C 6,1 C 6,4 km/h (2 Bft)
11.10.2022 02:30 6,0 C 3,3 C 91 % 1025,7 hPa 0,0 l/m 4,8 km/h (1 Bft) N-NO 22 0 min 0,0 UV-I 0 W/m 4,6 C 6,0 C 6,4 km/h (2 Bft)
11.10.2022 02:33 5,9 C 3,3 C 91 % 1025,8 hPa 0,0 l/m 5,3 km/h (1 Bft) N 355 0 min 0,0 UV-I 0 W/m 4,5 C 5,9 C 9,7 km/h (2 Bft)
11.10.2022 02:36 5,9 C 3,3 C 91 % 1025,8 hPa 0,0 l/m 5,4 km/h (1 Bft) N-NO 19 0 min 0,0 UV-I 0 W/m 4,5 C 5,9 C 8,0 km/h (2 Bft)
11.10.2022 02:39 5,8 C 3,3 C 91 % 1025,7 hPa 0,0 l/m 4,7 km/h (1 Bft) N 10 0 min 0,0 UV-I 0 W/m 4,4 C 5,8 C 6,4 km/h (2 Bft)
11.10.2022 02:42 5,8 C 3,3 C 91 % 1025,7 hPa 0,0 l/m 5,0 km/h (1 Bft) N 5 0 min 0,0 UV-I 0 W/m 4,4 C 5,8 C 8,0 km/h (2 Bft)
11.10.2022 02:45 5,8 C 3,3 C 92 % 1025,8 hPa 0,0 l/m 7,6 km/h (2 Bft) N 355 0 min 0,0 UV-I 0 W/m 4,6 C 4,8 C 9,7 km/h (2 Bft)
11.10.2022 02:48 5,8 C 3,3 C 92 % 1025,8 hPa 0,0 l/m 8,4 km/h (2 Bft) N 5 0 min 0,0 UV-I 0 W/m 4,6 C 4,1 C 9,7 km/h (2 Bft)
11.10.2022 02:51 5,9 C 2,8 C 92 % 1025,7 hPa 0,0 l/m 5,8 km/h (2 Bft) N 5 0 min 0,0 UV-I 0 W/m 4,7 C 5,9 C 9,7 km/h (2 Bft)
11.10.2022 02:54 5,4 C 2,8 C 90 % 1025,7 hPa 0,0 l/m 1,9 km/h (1 Bft) N 5 0 min 0,0 UV-I 0 W/m 3,9 C 5,4 C 3,2 km/h (1 Bft)
11.10.2022 02:57 5,1 C 2,8 C 91 % 1025,9 hPa 0,0 l/m 0,8 km/h (0 Bft) N 5 0 min 0,0 UV-I 0 W/m 3,8 C 5,1 C 3,2 km/h (1 Bft)
11.10.2022 03:00 4,9 C 2,8 C 91 % 1025,9 hPa 0,0 l/m 1,3 km/h (1 Bft) N 5 0 min 0,0 UV-I 0 W/m 3,6 C 4,9 C 3,2 km/h (1 Bft)
11.10.2022 03:03 4,9 C 2,8 C 91 % 1025,8 hPa 0,0 l/m 1,1 km/h (1 Bft) N 5 0 min 0,0 UV-I 0 W/m 3,6 C 4,9 C 3,2 km/h (1 Bft)
11.10.2022 03:06 4,9 C 2,2 C 92 % 1025,9 hPa 0,0 l/m 1,8 km/h (1 Bft) N 5 0 min 0,0 UV-I 0 W/m 3,7 C 4,9 C 3,2 km/h (1 Bft)
11.10.2022 03:09 4,9 C 2,2 C 92 % 1025,9 hPa 0,0 l/m 0,5 km/h (0 Bft) N 5 0 min 0,0 UV-I 0 W/m 3,7 C 4,9 C 1,6 km/h (1 Bft)
11.10.2022 03:12 4,6 C 2,2 C 91 % 1025,9 hPa 0,0 l/m 0,1 km/h (0 Bft) N 5 0 min 0,0 UV-I 0 W/m 3,3 C 4,6 C 1,6 km/h (1 Bft)
11.10.2022 03:15 4,6 C 2,2 C 92 % 1025,9 hPa 0,0 l/m 0,1 km/h (0 Bft) N 5 0 min 0,0 UV-I 0 W/m 3,4 C 4,6 C 1,6 km/h (1 Bft)
11.10.2022 03:18 4,5 C 2,2 C 92 % 1025,8 hPa 0,0 l/m 0,0 km/h (0 Bft) N 5 0 min 0,0 UV-I 0 W/m 3,3 C 4,5 C 0,0 km/h (0 Bft)
11.10.2022 03:21 4,6 C 2,2 C 92 % 1025,8 hPa 0,0 l/m 0,0 km/h (0 Bft) N 5 0 min 0,0 UV-I 0 W/m 3,4 C 4,6 C 0,0 km/h (0 Bft)
11.10.2022 03:24 4,8 C 2,2 C 92 % 1025,8 hPa 0,0 l/m 0,2 km/h (0 Bft) N 5 0 min 0,0 UV-I 0 W/m 3,6 C 4,8 C 1,6 km/h (1 Bft)
11.10.2022 03:27 4,8 C 2,2 C 92 % 1025,8 hPa 0,0 l/m 1,9 km/h (1 Bft) N 5 0 min 0,0 UV-I 0 W/m 3,6 C 4,8 C 4,8 km/h (1 Bft)
11.10.2022 03:30 4,7 C 2,2 C 92 % 1025,9 hPa 0,0 l/m 1,4 km/h (1 Bft) N 5 0 min 0,0 UV-I 0 W/m 3,5 C 4,7 C 3,2 km/h (1 Bft)
11.10.2022 03:33 4,4 C 2,2 C 92 % 1025,9 hPa 0,0 l/m 0,2 km/h (0 Bft) N 5 0 min 0,0 UV-I 0 W/m 3,2 C 4,4 C 1,6 km/h (1 Bft)
11.10.2022 03:36 4,5 C 2,2 C 92 % 1025,9 hPa 0,0 l/m 0,6 km/h (0 Bft) N 5 0 min 0,0 UV-I 0 W/m 3,3 C 4,5 C 1,6 km/h (1 Bft)
11.10.2022 03:39 4,4 C 1,7 C 92 % 1025,9 hPa 0,0 l/m 0,3 km/h (0 Bft) N 5 0 min 0,0 UV-I 0 W/m 3,2 C 4,4 C 1,6 km/h (1 Bft)
11.10.2022 03:42 4,2 C 1,7 C 92 % 1025,9 hPa 0,0 l/m 0,0 km/h (0 Bft) N 5 0 min 0,0 UV-I 0 W/m 3,0 C 4,2 C 1,6 km/h (1 Bft)
11.10.2022 03:45 4,0 C 1,7 C 92 % 1025,9 hPa 0,0 l/m 0,0 km/h (0 Bft) N 5 0 min 0,0 UV-I 0 W/m 2,8 C 4,0 C 0,0 km/h (0 Bft)
11.10.2022 03:48 3,9 C 1,7 C 92 % 1025,9 hPa 0,0 l/m 0,2 km/h (0 Bft) N 5 0 min 0,0 UV-I 0 W/m 2,7 C 3,9 C 1,6 km/h (1 Bft)
11.10.2022 03:51 3,8 C 1,7 C 92 % 1026,0 hPa 0,0 l/m 0,0 km/h (0 Bft) N 5 0 min 0,0 UV-I 0 W/m 2,6 C 3,8 C 0,0 km/h (0 Bft)
11.10.2022 03:54 3,7 C 1,7 C 92 % 1025,9 hPa 0,0 l/m 0,0 km/h (0 Bft) N 5 0 min 0,0 UV-I 0 W/m 2,5 C 3,7 C 0,0 km/h (0 Bft)
11.10.2022 03:57 3,7 C 1,7 C 92 % 1025,9 hPa 0,0 l/m 0,0 km/h (0 Bft) N 5 0 min 0,0 UV-I 0 W/m 2,5 C 3,7 C 0,0 km/h (0 Bft)
11.10.2022 04:00 3,7 C 1,7 C 92 % 1025,9 hPa 0,0 l/m 0,0 km/h (0 Bft) N 5 0 min 0,0 UV-I 0 W/m 2,5 C 3,7 C 0,0 km/h (0 Bft)
11.10.2022 04:03 3,6 C 1,7 C 92 % 1025,9 hPa 0,0 l/m 0,0 km/h (0 Bft) N 5 0 min 0,0 UV-I 0 W/m 2,4 C 3,6 C 0,0 km/h (0 Bft)
11.10.2022 04:06 3,2 C 1,7 C 92 % 1026,0 hPa 0,0 l/m 0,0 km/h (0 Bft) N 5 0 min 0,0 UV-I 0 W/m 2,0 C 3,2 C 0,0 km/h (0 Bft)
11.10.2022 04:09 3,1 C 1,7 C 92 % 1025,9 hPa 0,0 l/m 0,0 km/h (0 Bft) N 5 0 min 0,0 UV-I 0 W/m 1,9 C 3,1 C 0,0 km/h (0 Bft)
11.10.2022 04:12 3,2 C 1,7 C 92 % 1025,9 hPa 0,0 l/m 0,0 km/h (0 Bft) N 5 0 min 0,0 UV-I 0 W/m 2,0 C 3,2 C 0,0 km/h (0 Bft)
11.10.2022 04:15 3,2 C 1,7 C 93 % 1025,9 hPa 0,0 l/m 0,0 km/h (0 Bft) N 5 0 min 0,0 UV-I 0 W/m 2,2 C 3,2 C 0,0 km/h (0 Bft)
11.10.2022 04:18 3,2 C 1,1 C 93 % 1025,9 hPa 0,0 l/m 0,0 km/h (0 Bft) N 5 0 min 0,0 UV-I 0 W/m 2,2 C 3,2 C 0,0 km/h (0 Bft)
11.10.2022 04:21 2,8 C 1,1 C 92 % 1025,9 hPa 0,0 l/m 0,0 km/h (0 Bft) N 5 0 min 0,0 UV-I 0 W/m 1,6 C 2,8 C 0,0 km/h (0 Bft)
11.10.2022 04:24 2,6 C 1,1 C 92 % 1026,0 hPa 0,0 l/m 0,0 km/h (0 Bft) N 5 0 min 0,0 UV-I 0 W/m 1,4 C 2,6 C 0,0 km/h (0 Bft)
11.10.2022 04:27 2,7 C 1,1 C 93 % 1025,9 hPa 0,0 l/m 0,0 km/h (0 Bft) N 5 0 min 0,0 UV-I 0 W/m 1,7 C 2,7 C 0,0 km/h (0 Bft)
11.10.2022 04:30 2,7 C 1,1 C 93 % 1025,9 hPa 0,0 l/m 0,2 km/h (0 Bft) N 5 0 min 0,0 UV-I 0 W/m 1,7 C 2,7 C 1,6 km/h (1 Bft)
11.10.2022 04:33 2,5 C 0,6 C 92 % 1026,0 hPa 0,0 l/m 0,6 km/h (0 Bft) N 5 0 min 0,0 UV-I 0 W/m 1,3 C 2,5 C 1,6 km/h (1 Bft)
11.10.2022 04:36 2,4 C 0,6 C 93 % 1025,9 hPa 0,0 l/m 0,0 km/h (0 Bft) N 5 0 min 0,0 UV-I 0 W/m 1,4 C 2,4 C 0,0 km/h (0 Bft)
11.10.2022 04:39 2,4 C 0,6 C 93 % 1025,9 hPa 0,0 l/m 0,0 km/h (0 Bft) N 5 0 min 0,0 UV-I 0 W/m 1,4 C 2,4 C 0,0 km/h (0 Bft)
11.10.2022 04:42 2,3 C 0,6 C 93 % 1026,0 hPa 0,0 l/m 0,0 km/h (0 Bft) N 5 0 min 0,0 UV-I 0 W/m 1,3 C 2,3 C 0,0 km/h (0 Bft)
11.10.2022 04:45 2,0 C 0,6 C 92 % 1026,0 hPa 0,0 l/m 0,0 km/h (0 Bft) N 5 0 min 0,0 UV-I 0 W/m 0,8 C 2,0 C 0,0 km/h (0 Bft)
11.10.2022 04:48 1,7 C 0,0 C 92 % 1026,0 hPa 0,0 l/m 0,0 km/h (0 Bft) N 5 0 min 0,0 UV-I 0 W/m 0,5 C 1,7 C 0,0 km/h (0 Bft)
11.10.2022 04:51 1,7 C 0,0 C 93 % 1026,0 hPa 0,0 l/m 0,0 km/h (0 Bft) N 5 0 min 0,0 UV-I 0 W/m 0,7 C 1,7 C 0,0 km/h (0 Bft)
11.10.2022 04:54 1,7 C 0,0 C 93 % 1026,1 hPa 0,0 l/m 0,0 km/h (0 Bft) N 5 0 min 0,0 UV-I 0 W/m 0,7 C 1,7 C 0,0 km/h (0 Bft)
11.10.2022 04:57 1,7 C 0,0 C 93 % 1026,2 hPa 0,0 l/m 0,0 km/h (0 Bft) N 5 0 min 0,0 UV-I 0 W/m 0,7 C 1,7 C 0,0 km/h (0 Bft)
11.10.2022 05:00 1,7 C 0,0 C 93 % 1026,2 hPa 0,0 l/m 0,0 km/h (0 Bft) N 5 0 min 0,0 UV-I 0 W/m 0,7 C 1,7 C 0,0 km/h (0 Bft)
11.10.2022 05:03 1,7 C 0,0 C 93 % 1026,3 hPa 0,0 l/m 0,0 km/h (0 Bft) N 5 0 min 0,0 UV-I 0 W/m 0,7 C 1,7 C 0,0 km/h (0 Bft)
11.10.2022 05:06 1,7 C 0,0 C 93 % 1026,2 hPa 0,0 l/m 0,0 km/h (0 Bft) N 5 0 min 0,0 UV-I 0 W/m 0,7 C 1,7 C 0,0 km/h (0 Bft)
11.10.2022 05:09 1,7 C 0,0 C 93 % 1026,3 hPa 0,0 l/m 0,0 km/h (0 Bft) N 5 0 min 0,0 UV-I 0 W/m 0,7 C 1,7 C 0,0 km/h (0 Bft)
11.10.2022 05:12 1,8 C 0,0 C 93 % 1026,3 hPa 0,0 l/m 0,0 km/h (0 Bft) N 5 0 min 0,0 UV-I 0 W/m 0,8 C 1,8 C 0,0 km/h (0 Bft)
11.10.2022 05:15 1,7 C 0,0 C 93 % 1026,3 hPa 0,0 l/m 0,0 km/h (0 Bft) N 5 0 min 0,0 UV-I 0 W/m 0,7 C 1,7 C 0,0 km/h (0 Bft)
11.10.2022 05:18 1,5 C 0,0 C 93 % 1026,3 hPa 0,0 l/m 0,0 km/h (0 Bft) N 5 0 min 0,0 UV-I 0 W/m 0,5 C 1,5 C 0,0 km/h (0 Bft)
11.10.2022 05:21 1,6 C 0,0 C 93 % 1026,4 hPa 0,0 l/m 0,0 km/h (0 Bft) N 5 0 min 0,0 UV-I 0 W/m 0,6 C 1,6 C 0,0 km/h (0 Bft)
11.10.2022 05:24 1,3 C 0,0 C 93 % 1026,4 hPa 0,0 l/m 0,0 km/h (0 Bft) N 5 0 min 0,0 UV-I 0 W/m 0,3 C 1,3 C 0,0 km/h (0 Bft)
11.10.2022 05:27 1,1 C 0,0 C 92 % 1026,5 hPa 0,0 l/m 0,0 km/h (0 Bft) N 5 0 min 0,0 UV-I 0 W/m -0,1 C 1,1 C 0,0 km/h (0 Bft)
11.10.2022 05:30 1,0 C 0,0 C 93 % 1026,4 hPa 0,0 l/m 0,0 km/h (0 Bft) N 5 0 min 0,0 UV-I 0 W/m -0,0 C 1,0 C 0,0 km/h (0 Bft)
11.10.2022 05:33 1,1 C 0,0 C 93 % 1026,5 hPa 0,0 l/m 0,8 km/h (0 Bft) N 5 0 min 0,0 UV-I 0 W/m 0,1 C 1,1 C 1,6 km/h (1 Bft)
11.10.2022 05:36 1,2 C 0,0 C 93 % 1026,5 hPa 0,0 l/m 1,3 km/h (1 Bft) N 5 0 min 0,0 UV-I 0 W/m 0,2 C 1,2 C 3,2 km/h (1 Bft)
11.10.2022 05:39 1,2 C 0,0 C 93 % 1026,5 hPa 0,0 l/m 1,1 km/h (1 Bft) N 5 0 min 0,0 UV-I 0 W/m 0,2 C 1,2 C 3,2 km/h (1 Bft)
11.10.2022 05:42 1,2 C 0,0 C 93 % 1026,5 hPa 0,0 l/m 1,8 km/h (1 Bft) N 5 0 min 0,0 UV-I 0 W/m 0,2 C 1,2 C 3,2 km/h (1 Bft)
11.10.2022 05:45 1,2 C 0,0 C 93 % 1026,6 hPa 0,0 l/m 2,3 km/h (1 Bft) N 5 0 min 0,0 UV-I 0 W/m 0,2 C 1,2 C 3,2 km/h (1 Bft)
11.10.2022 05:48 1,2 C 0,0 C 93 % 1026,6 hPa 0,0 l/m 2,1 km/h (1 Bft) N 5 0 min 0,0 UV-I 0 W/m 0,2 C 1,2 C 3,2 km/h (1 Bft)
11.10.2022 05:51 1,2 C 0,0 C 93 % 1026,6 hPa 0,0 l/m 1,2 km/h (1 Bft) N 5 0 min 0,0 UV-I 0 W/m 0,2 C 1,2 C 3,2 km/h (1 Bft)
11.10.2022 05:54 1,2 C 0,0 C 93 % 1026,5 hPa 0,0 l/m 0,0 km/h (0 Bft) N 5 0 min 0,0 UV-I 0 W/m 0,2 C 1,2 C 0,0 km/h (0 Bft)
11.10.2022 05:57 0,9 C 0,0 C 93 % 1026,6 hPa 0,0 l/m 0,4 km/h (0 Bft) N 5 0 min 0,0 UV-I 0 W/m -0,1 C 0,9 C 1,6 km/h (1 Bft)
11.10.2022 06:00 0,7 C -0,6 C 93 % 1026,7 hPa 0,0 l/m 0,4 km/h (0 Bft) N 5 0 min 0,0 UV-I 0 W/m -0,3 C 0,7 C 1,6 km/h (1 Bft)
11.10.2022 06:03 0,7 C -0,6 C 93 % 1026,7 hPa 0,0 l/m 0,0 km/h (0 Bft) N 5 0 min 0,0 UV-I 0 W/m -0,3 C 0,7 C 1,6 km/h (1 Bft)
11.10.2022 06:06 0,8 C -0,6 C 93 % 1026,6 hPa 0,0 l/m 0,0 km/h (0 Bft) N 5 0 min 0,0 UV-I 0 W/m -0,2 C 0,8 C 0,0 km/h (0 Bft)
11.10.2022 06:09 0,8 C -0,6 C 93 % 1026,8 hPa 0,0 l/m 0,0 km/h (0 Bft) N 5 0 min 0,0 UV-I 0 W/m -0,2 C 0,8 C 0,0 km/h (0 Bft)
11.10.2022 06:12 0,8 C -0,6 C 93 % 1026,7 hPa 0,0 l/m 0,0 km/h (0 Bft) N 5 0 min 0,0 UV-I 0 W/m -0,2 C 0,8 C 0,0 km/h (0 Bft)
11.10.2022 06:15 0,7 C -0,6 C 93 % 1026,8 hPa 0,0 l/m 0,0 km/h (0 Bft) N 5 0 min 0,0 UV-I 0 W/m -0,3 C 0,7 C 0,0 km/h (0 Bft)
11.10.2022 06:18 0,7 C -0,6 C 93 % 1026,8 hPa 0,0 l/m 0,0 km/h (0 Bft) N 5 0 min 0,0 UV-I 0 W/m -0,3 C 0,7 C 0,0 km/h (0 Bft)
11.10.2022 06:21 0,5 C -0,6 C 93 % 1026,7 hPa 0,0 l/m 0,0 km/h (0 Bft) N 5 0 min 0,0 UV-I 0 W/m -0,5 C 0,5 C 0,0 km/h (0 Bft)
11.10.2022 06:24 0,5 C -0,6 C 93 % 1026,8 hPa 0,0 l/m 0,0 km/h (0 Bft) N 5 0 min 0,0 UV-I 0 W/m -0,5 C 0,5 C 0,0 km/h (0 Bft)
11.10.2022 06:27 0,4 C -0,6 C 93 % 1026,7 hPa 0,0 l/m 0,0 km/h (0 Bft) N 5 0 min 0,0 UV-I 0 W/m -0,6 C 0,4 C 0,0 km/h (0 Bft)
11.10.2022 06:30 0,5 C -0,6 C 93 % 1026,7 hPa 0,0 l/m 0,0 km/h (0 Bft) N 5 0 min 0,0 UV-I 0 W/m -0,5 C 0,5 C 0,0 km/h (0 Bft)
11.10.2022 06:33 0,6 C -0,6 C 93 % 1026,7 hPa 0,0 l/m 0,0 km/h (0 Bft) N 5 0 min 0,0 UV-I 0 W/m -0,4 C 0,6 C 0,0 km/h (0 Bft)
11.10.2022 06:36 0,7 C -0,6 C 93 % 1026,7 hPa 0,0 l/m 0,0 km/h (0 Bft) N 5 0 min 0,0 UV-I 0 W/m -0,3 C 0,7 C 0,0 km/h (0 Bft)
11.10.2022 06:39 0,7 C 0,0 C 93 % 1026,7 hPa 0,0 l/m 0,0 km/h (0 Bft) N 5 0 min 0,0 UV-I 0 W/m -0,3 C 0,7 C 0,0 km/h (0 Bft)
11.10.2022 06:42 0,6 C -0,6 C 93 % 1026,8 hPa 0,0 l/m 0,0 km/h (0 Bft) N 5 0 min 0,0 UV-I 0 W/m -0,4 C 0,6 C 0,0 km/h (0 Bft)
11.10.2022 06:45 0,4 C -0,6 C 93 % 1026,8 hPa 0,0 l/m 0,0 km/h (0 Bft) N 5 0 min 0,0 UV-I 0 W/m -0,6 C 0,4 C 0,0 km/h (0 Bft)
11.10.2022 06:48 0,4 C -0,6 C 93 % 1026,8 hPa 0,0 l/m 0,0 km/h (0 Bft) N 5 0 min 0,0 UV-I 0 W/m -0,6 C 0,4 C 0,0 km/h (0 Bft)
11.10.2022 06:51 0,4 C -0,6 C 93 % 1026,9 hPa 0,0 l/m 0,0 km/h (0 Bft) N 5 0 min 0,0 UV-I 0 W/m -0,6 C 0,4 C 0,0 km/h (0 Bft)
11.10.2022 06:54 0,3 C -0,6 C 93 % 1026,9 hPa 0,0 l/m 0,0 km/h (0 Bft) N 5 0 min 0,0 UV-I 0 W/m -0,7 C 0,3 C 0,0 km/h (0 Bft)
11.10.2022 06:57 0,2 C -0,6 C 93 % 1027,0 hPa 0,0 l/m 0,0 km/h (0 Bft) N 5 0 min 0,0 UV-I 0 W/m -0,8 C 0,2 C 0,0 km/h (0 Bft)
11.10.2022 07:00 0,1 C -0,6 C 93 % 1026,9 hPa 0,0 l/m 0,0 km/h (0 Bft) N 5 0 min 0,0 UV-I 0 W/m -0,9 C 0,1 C 0,0 km/h (0 Bft)
11.10.2022 07:01 0,1 C -0,6 C 93 % 1026,8 hPa 0,0 l/m 0,0 km/h (0 Bft) N 0 0 min 0,0 UV-I 0 W/m -0,9 C 0,1 C 0,0 km/h (0 Bft)
11.10.2022 07:09 0,2 C -0,6 C 93 % 1027,0 hPa 0,0 l/m 0,8 km/h (0 Bft) N 5 0 min 0,0 UV-I 0 W/m -0,8 C 0,2 C 1,6 km/h (1 Bft)
11.10.2022 07:12 0,2 C -0,6 C 93 % 1026,9 hPa 0,0 l/m 1,1 km/h (1 Bft) N 5 0 min 0,0 UV-I 0 W/m -0,8 C 0,2 C 1,6 km/h (1 Bft)
11.10.2022 07:15 0,3 C -0,6 C 93 % 1027,0 hPa 0,0 l/m 0,4 km/h (0 Bft) N 5 0 min 0,0 UV-I 0 W/m -0,7 C 0,3 C 1,6 km/h (1 Bft)
11.10.2022 07:18 0,3 C -0,6 C 93 % 1027,0 hPa 0,0 l/m 0,9 km/h (0 Bft) N 5 0 min 0,0 UV-I 0 W/m -0,7 C 0,3 C 1,6 km/h (1 Bft)
11.10.2022 07:21 0,3 C -0,6 C 93 % 1027,0 hPa 0,0 l/m 1,2 km/h (1 Bft) N 5 0 min 0,0 UV-I 0 W/m -0,7 C 0,3 C 3,2 km/h (1 Bft)
11.10.2022 07:24 0,4 C -0,6 C 93 % 1026,9 hPa 0,0 l/m 1,3 km/h (1 Bft) N 5 0 min 0,0 UV-I 0 W/m -0,6 C 0,4 C 3,2 km/h (1 Bft)
11.10.2022 07:27 0,4 C -0,6 C 93 % 1027,0 hPa 0,0 l/m 0,0 km/h (0 Bft) N 5 0 min 0,0 UV-I 0 W/m -0,6 C 0,4 C 0,0 km/h (0 Bft)
11.10.2022 07:30 0,4 C -0,6 C 93 % 1026,9 hPa 0,0 l/m 0,1 km/h (0 Bft) N 5 0 min 0,0 UV-I 0 W/m -0,6 C 0,4 C 1,6 km/h (1 Bft)
11.10.2022 07:33 0,2 C -0,6 C 93 % 1027,0 hPa 0,0 l/m 0,8 km/h (0 Bft) N 5 0 min 0,0 UV-I 0 W/m -0,8 C 0,2 C 3,2 km/h (1 Bft)
11.10.2022 07:36 0,4 C -0,6 C 93 % 1027,0 hPa 0,0 l/m 1,4 km/h (1 Bft) N 5 0 min 0,0 UV-I 0 W/m -0,6 C 0,4 C 1,6 km/h (1 Bft)
11.10.2022 07:39 0,5 C -0,6 C 93 % 1027,0 hPa 0,0 l/m 1,0 km/h (0 Bft) N 5 0 min 0,0 UV-I 0 W/m -0,5 C 0,5 C 1,6 km/h (1 Bft)
11.10.2022 07:42 0,4 C -0,6 C 93 % 1027,1 hPa 0,0 l/m 0,0 km/h (0 Bft) N 5 0 min 0,0 UV-I 0 W/m -0,6 C 0,4 C 0,0 km/h (0 Bft)
11.10.2022 07:45 0,3 C -0,6 C 93 % 1027,1 hPa 0,0 l/m 0,0 km/h (0 Bft) N 5 0 min 0,0 UV-I 0 W/m -0,7 C 0,3 C 0,0 km/h (0 Bft)
11.10.2022 07:48 -0,1 C -1,1 C 93 % 1027,1 hPa 0,0 l/m 0,0 km/h (0 Bft) N 5 0 min 0,0 UV-I 0 W/m -1,1 C -0,1 C 0,0 km/h (0 Bft)
11.10.2022 07:51 -0,1 C -1,1 C 93 % 1027,1 hPa 0,0 l/m 0,0 km/h (0 Bft) N 5 0 min 0,0 UV-I 0 W/m -1,1 C -0,1 C 0,0 km/h (0 Bft)
11.10.2022 07:54 -0,1 C -1,1 C 93 % 1027,2 hPa 0,0 l/m 0,0 km/h (0 Bft) N 5 0 min 0,0 UV-I 2 W/m -1,1 C -0,1 C 0,0 km/h (0 Bft)
11.10.2022 07:57 -0,1 C -1,1 C 93 % 1027,2 hPa 0,0 l/m 0,0 km/h (0 Bft) N 5 0 min 0,0 UV-I 5 W/m -1,1 C -0,1 C 0,0 km/h (0 Bft)
11.10.2022 08:00 -0,1 C -1,1 C 93 % 1027,2 hPa 0,0 l/m 0,0 km/h (0 Bft) N 5 0 min 0,0 UV-I 6 W/m -1,1 C -0,1 C 0,0 km/h (0 Bft)
11.10.2022 08:03 -0,1 C -1,1 C 93 % 1027,2 hPa 0,0 l/m 0,0 km/h (0 Bft) N 5 0 min 0,0 UV-I 8 W/m -1,1 C -0,1 C 0,0 km/h (0 Bft)
11.10.2022 08:06 -0,2 C -1,1 C 93 % 1027,3 hPa 0,0 l/m 0,0 km/h (0 Bft) N 5 0 min 0,0 UV-I 9 W/m -1,2 C -0,2 C 0,0 km/h (0 Bft)
11.10.2022 08:09 -0,3 C -1,1 C 93 % 1027,3 hPa 0,0 l/m 0,0 km/h (0 Bft) N 5 0 min 0,0 UV-I 11 W/m -1,3 C -0,3 C 0,0 km/h (0 Bft)
11.10.2022 08:12 -0,2 C -1,1 C 93 % 1027,2 hPa 0,0 l/m 0,0 km/h (0 Bft) N 5 0 min 0,0 UV-I 12 W/m -1,2 C -0,2 C 0,0 km/h (0 Bft)
11.10.2022 08:15 -0,1 C -1,1 C 94 % 1027,4 hPa 0,0 l/m 0,0 km/h (0 Bft) N 5 0 min 0,0 UV-I 14 W/m -0,9 C -0,1 C 0,0 km/h (0 Bft)
11.10.2022 08:18 0,1 C -1,1 C 93 % 1027,4 hPa 0,0 l/m 0,0 km/h (0 Bft) N 5 0 min 0,0 UV-I 16 W/m -0,9 C 0,1 C 0,0 km/h (0 Bft)
11.10.2022 08:21 0,2 C -1,1 C 93 % 1027,4 hPa 0,0 l/m 0,0 km/h (0 Bft) N 5 0 min 0,0 UV-I 18 W/m -0,8 C 0,2 C 0,0 km/h (0 Bft)
11.10.2022 08:24 0,0 C -1,1 C 93 % 1027,4 hPa 0,0 l/m 0,0 km/h (0 Bft) N 5 0 min 0,0 UV-I 19 W/m -1,0 C 0,0 C 0,0 km/h (0 Bft)
11.10.2022 08:27 0,1 C -0,6 C 93 % 1027,4 hPa 0,0 l/m 0,0 km/h (0 Bft) N 5 0 min 0,0 UV-I 22 W/m -0,9 C 0,1 C 0,0 km/h (0 Bft)
11.10.2022 08:30 0,1 C -0,6 C 93 % 1027,5 hPa 0,0 l/m 0,0 km/h (0 Bft) N 5 0 min 0,0 UV-I 22 W/m -0,9 C 0,1 C 0,0 km/h (0 Bft)
11.10.2022 08:33 0,1 C -0,6 C 93 % 1027,6 hPa 0,0 l/m 0,0 km/h (0 Bft) N 5 0 min 0,0 UV-I 22 W/m -0,9 C 0,1 C 0,0 km/h (0 Bft)
11.10.2022 08:36 0,1 C -0,6 C 93 % 1027,6 hPa 0,0 l/m 0,0 km/h (0 Bft) N 5 0 min 0,0 UV-I 24 W/m -0,9 C 0,1 C 0,0 km/h (0 Bft)
11.10.2022 08:39 0,2 C -0,6 C 93 % 1027,7 hPa 0,0 l/m 0,0 km/h (0 Bft) N 5 0 min 0,0 UV-I 26 W/m -0,8 C 0,2 C 0,0 km/h (0 Bft)
11.10.2022 08:42 0,2 C -0,6 C 93 % 1027,7 hPa 0,0 l/m 0,0 km/h (0 Bft) N 5 0 min 0,0 UV-I 28 W/m -0,8 C 0,2 C 0,0 km/h (0 Bft)
11.10.2022 08:45 0,2 C 0,0 C 93 % 1027,7 hPa 0,0 l/m 0,0 km/h (0 Bft) N 5 0 min 0,0 UV-I 31 W/m -0,8 C 0,2 C 0,0 km/h (0 Bft)
11.10.2022 08:48 0,4 C 0,0 C 94 % 1027,9 hPa 0,0 l/m 0,0 km/h (0 Bft) N 5 0 min 0,0 UV-I 33 W/m -0,5 C 0,4 C 0,0 km/h (0 Bft)
11.10.2022 08:51 0,6 C 0,0 C 94 % 1027,8 hPa 0,0 l/m 0,0 km/h (0 Bft) N 5 0 min 0,0 UV-I 33 W/m -0,3 C 0,6 C 0,0 km/h (0 Bft)
11.10.2022 08:54 0,9 C 0,0 C 94 % 1027,8 hPa 0,0 l/m 0,0 km/h (0 Bft) N 5 0 min 0,0 UV-I 32 W/m 0,0 C 0,9 C 0,0 km/h (0 Bft)
11.10.2022 08:57 1,2 C 0,0 C 94 % 1027,9 hPa 0,0 l/m 0,0 km/h (0 Bft) N 5 0 min 0,0 UV-I 32 W/m 0,3 C 1,2 C 0,0 km/h (0 Bft)
11.10.2022 09:00 1,1 C 0,0 C 94 % 1027,8 hPa 0,0 l/m 0,0 km/h (0 Bft) N 5 0 min 0,0 UV-I 34 W/m 0,2 C 1,1 C 0,0 km/h (0 Bft)
11.10.2022 09:03 1,1 C 0,0 C 94 % 1027,9 hPa 0,0 l/m 0,0 km/h (0 Bft) N 5 0 min 0,0 UV-I 34 W/m 0,2 C 1,1 C 0,0 km/h (0 Bft)
11.10.2022 09:06 1,2 C 0,0 C 94 % 1027,9 hPa 0,0 l/m 0,0 km/h (0 Bft) N 5 0 min 0,0 UV-I 38 W/m 0,3 C 1,2 C 0,0 km/h (0 Bft)
11.10.2022 09:09 1,5 C 0,6 C 94 % 1027,9 hPa 0,0 l/m 0,0 km/h (0 Bft) N 5 0 min 0,0 UV-I 39 W/m 0,6 C 1,5 C 0,0 km/h (0 Bft)
11.10.2022 09:12 1,8 C 1,1 C 94 % 1027,9 hPa 0,0 l/m 0,0 km/h (0 Bft) N 5 0 min 0,0 UV-I 39 W/m 0,9 C 1,8 C 0,0 km/h (0 Bft)
11.10.2022 09:15 1,9 C 1,1 C 94 % 1027,9 hPa 0,0 l/m 0,0 km/h (0 Bft) N 5 0 min 0,0 UV-I 33 W/m 1,0 C 1,9 C 0,0 km/h (0 Bft)
11.10.2022 09:18 2,0 C 1,7 C 94 % 1027,9 hPa 0,0 l/m 0,0 km/h (0 Bft) N 5 0 min 0,0 UV-I 36 W/m 1,1 C 2,0 C 0,0 km/h (0 Bft)
11.10.2022 09:21 2,1 C 1,7 C 94 % 1028,0 hPa 0,0 l/m 0,0 km/h (0 Bft) N 5 0 min 0,0 UV-I 36 W/m 1,2 C 2,1 C 0,0 km/h (0 Bft)
11.10.2022 09:24 2,4 C 1,7 C 94 % 1027,9 hPa 0,0 l/m 0,0 km/h (0 Bft) N 5 0 min 0,0 UV-I 37 W/m 1,5 C 2,4 C 0,0 km/h (0 Bft)
11.10.2022 09:27 2,8 C 2,2 C 94 % 1028,1 hPa 0,0 l/m 0,0 km/h (0 Bft) N 5 0 min 0,0 UV-I 38 W/m 1,9 C 2,8 C 0,0 km/h (0 Bft)
11.10.2022 09:30 2,8 C 2,2 C 94 % 1028,1 hPa 0,0 l/m 0,2 km/h (0 Bft) N 5 0 min 0,0 UV-I 42 W/m 1,9 C 2,8 C 1,6 km/h (1 Bft)
11.10.2022 09:33 2,8 C 2,8 C 94 % 1028,1 hPa 0,0 l/m 0,1 km/h (0 Bft) N 5 0 min 0,3 UV-I 80 W/m 1,9 C 2,8 C 1,6 km/h (1 Bft)
11.10.2022 09:36 2,9 C 2,8 C 94 % 1028,2 hPa 0,0 l/m 0,1 km/h (0 Bft) N 5 0 min 0,4 UV-I 91 W/m 2,0 C 2,9 C 1,6 km/h (1 Bft)
11.10.2022 09:39 3,6 C 2,8 C 94 % 1028,0 hPa 0,0 l/m 0,4 km/h (0 Bft) N 5 0 min 0,2 UV-I 56 W/m 2,7 C 3,6 C 1,6 km/h (1 Bft)
11.10.2022 09:42 4,2 C 3,3 C 95 % 1028,1 hPa 0,0 l/m 1,2 km/h (1 Bft) N 5 0 min 0,1 UV-I 51 W/m 3,5 C 4,2 C 3,2 km/h (1 Bft)
11.10.2022 09:45 4,6 C 3,9 C 95 % 1028,1 hPa 0,0 l/m 1,9 km/h (1 Bft) N 5 0 min 0,6 UV-I 140 W/m 3,9 C 4,6 C 4,8 km/h (1 Bft)
11.10.2022 09:48 5,0 C 3,9 C 95 % 1028,1 hPa 0,0 l/m 3,6 km/h (1 Bft) N-NO 22 0 min 0,7 UV-I 223 W/m 4,3 C 5,0 C 6,4 km/h (2 Bft)
11.10.2022 09:51 5,3 C 4,4 C 95 % 1028,2 hPa 0,0 l/m 3,6 km/h (1 Bft) N-NO 29 0 min 0,8 UV-I 214 W/m 4,6 C 5,3 C 6,4 km/h (2 Bft)
11.10.2022 09:54 5,4 C 4,4 C 95 % 1028,1 hPa 0,0 l/m 3,2 km/h (1 Bft) N-NO 29 0 min 0,7 UV-I 135 W/m 4,7 C 5,4 C 6,4 km/h (2 Bft)
11.10.2022 09:57 5,6 C 5,0 C 95 % 1028,2 hPa 0,0 l/m 5,2 km/h (1 Bft) N-NO 27 0 min 0,7 UV-I 79 W/m 4,9 C 5,6 C 9,7 km/h (2 Bft)
11.10.2022 10:00 5,6 C 5,0 C 95 % 1028,3 hPa 0,0 l/m 4,1 km/h (1 Bft) N-NO 25 0 min 0,7 UV-I 78 W/m 4,9 C 5,6 C 6,4 km/h (2 Bft)
11.10.2022 10:03 5,7 C 5,6 C 95 % 1028,2 hPa 0,0 l/m 4,7 km/h (1 Bft) N-NO 23 0 min 0,7 UV-I 174 W/m 5,0 C 5,7 C 8,0 km/h (2 Bft)
11.10.2022 10:06 5,7 C 5,6 C 94 % 1028,2 hPa 0,0 l/m 6,1 km/h (2 Bft) N-NO 26 0 min 0,8 UV-I 165 W/m 4,8 C 5,7 C 8,0 km/h (2 Bft)
11.10.2022 10:09 6,1 C 6,1 C 95 % 1028,3 hPa 0,0 l/m 6,0 km/h (2 Bft) N-NO 26 0 min 0,9 UV-I 102 W/m 5,4 C 6,1 C 8,0 km/h (2 Bft)
11.10.2022 10:12 6,3 C 6,7 C 95 % 1028,2 hPa 0,0 l/m 7,2 km/h (2 Bft) NO 34 0 min 0,8 UV-I 72 W/m 5,6 C 5,6 C 11,3 km/h (2 Bft)
11.10.2022 10:15 6,4 C 6,7 C 95 % 1028,3 hPa 0,0 l/m 7,2 km/h (2 Bft) NO 40 0 min 0,9 UV-I 171 W/m 5,7 C 5,7 C 9,7 km/h (2 Bft)
11.10.2022 10:18 6,5 C 6,7 C 94 % 1028,4 hPa 0,0 l/m 8,4 km/h (2 Bft) NO 39 0 min 1,0 UV-I 177 W/m 5,6 C 4,9 C 14,5 km/h (3 Bft)
11.10.2022 10:21 6,6 C 6,7 C 94 % 1028,3 hPa 0,0 l/m 7,4 km/h (2 Bft) N-NO 32 0 min 0,9 UV-I 116 W/m 5,7 C 5,8 C 11,3 km/h (2 Bft)
11.10.2022 10:24 6,8 C 6,7 C 94 % 1028,3 hPa 0,0 l/m 7,4 km/h (2 Bft) NO 55 0 min 1,0 UV-I 182 W/m 5,9 C 6,0 C 11,3 km/h (2 Bft)
11.10.2022 10:27 6,8 C 7,8 C 94 % 1028,4 hPa 0,0 l/m 7,5 km/h (2 Bft) NO 36 0 min 1,0 UV-I 94 W/m 5,9 C 5,9 C 11,3 km/h (2 Bft)
11.10.2022 10:30 6,8 C 7,8 C 94 % 1028,4 hPa 0,0 l/m 7,4 km/h (2 Bft) N-NO 33 0 min 0,9 UV-I 61 W/m 5,9 C 6,0 C 9,7 km/h (2 Bft)
11.10.2022 10:33 6,9 C 7,8 C 94 % 1028,4 hPa 0,0 l/m 7,0 km/h (2 Bft) O-NO 59 0 min 0,6 UV-I 63 W/m 6,0 C 6,4 C 11,3 km/h (2 Bft)
11.10.2022 10:36 6,9 C 8,3 C 94 % 1028,4 hPa 0,0 l/m 8,2 km/h (2 Bft) NO 43 0 min 1,0 UV-I 98 W/m 6,0 C 5,4 C 11,3 km/h (2 Bft)
11.10.2022 10:39 7,1 C 8,3 C 94 % 1028,5 hPa 0,0 l/m 6,8 km/h (2 Bft) NO 41 0 min 1,1 UV-I 205 W/m 6,2 C 6,8 C 11,3 km/h (2 Bft)
11.10.2022 10:42 7,3 C 7,8 C 94 % 1028,5 hPa 0,0 l/m 6,4 km/h (2 Bft) NO 38 0 min 1,0 UV-I 110 W/m 6,4 C 7,3 C 11,3 km/h (2 Bft)
11.10.2022 10:45 7,3 C 7,8 C 93 % 1028,5 hPa 0,0 l/m 8,7 km/h (2 Bft) NO 35 0 min 1,0 UV-I 82 W/m 6,2 C 5,5 C 12,9 km/h (3 Bft)
11.10.2022 10:48 7,5 C 7,8 C 94 % 1028,5 hPa 0,0 l/m 7,1 km/h (2 Bft) NO 46 0 min 1,0 UV-I 84 W/m 6,6 C 6,9 C 9,7 km/h (2 Bft)
11.10.2022 10:51 7,7 C 7,8 C 94 % 1028,3 hPa 0,0 l/m 7,9 km/h (2 Bft) O-NO 59 0 min 1,1 UV-I 120 W/m 6,8 C 6,5 C 11,3 km/h (2 Bft)
11.10.2022 10:54 7,6 C 7,8 C 93 % 1028,3 hPa 0,0 l/m 8,4 km/h (2 Bft) N-NO 28 0 min 1,3 UV-I 284 W/m 6,5 C 6,0 C 12,9 km/h (3 Bft)
11.10.2022 10:57 7,7 C 8,9 C 93 % 1028,3 hPa 0,0 l/m 8,2 km/h (2 Bft) N-NO 20 0 min 1,6 UV-I 370 W/m 6,6 C 6,3 C 12,9 km/h (3 Bft)
11.10.2022 11:00 7,7 C 10,0 C 93 % 1028,3 hPa 0,0 l/m 8,0 km/h (2 Bft) NO 47 0 min 1,6 UV-I 376 W/m 6,6 C 6,4 C 14,5 km/h (3 Bft)
11.10.2022 11:03 8,0 C 12,8 C 93 % 1028,3 hPa 0,0 l/m 6,9 km/h (2 Bft) NO 34 0 min 1,6 UV-I 383 W/m 6,9 C 7,6 C 9,7 km/h (2 Bft)
11.10.2022 11:06 8,0 C 14,4 C 92 % 1028,3 hPa 0,0 l/m 9,5 km/h (2 Bft) NO 34 0 min 1,7 UV-I 391 W/m 6,8 C 5,7 C 14,5 km/h (3 Bft)
11.10.2022 11:09 7,8 C 15,0 C 92 % 1028,4 hPa 0,0 l/m 11,2 km/h (2 Bft) NO 54 3 min 1,7 UV-I 396 W/m 6,6 C 4,4 C 16,1 km/h (3 Bft)
11.10.2022 11:12 7,8 C 15,0 C 92 % 1028,4 hPa 0,0 l/m 10,5 km/h (2 Bft) NO 44 3 min 1,8 UV-I 406 W/m 6,6 C 4,9 C 16,1 km/h (3 Bft)
11.10.2022 11:15 7,9 C 16,7 C 92 % 1028,4 hPa 0,0 l/m 9,5 km/h (2 Bft) O-NO 69 3 min 1,8 UV-I 414 W/m 6,7 C 5,6 C 14,5 km/h (3 Bft)
11.10.2022 11:18 7,7 C 16,1 C 91 % 1028,5 hPa 0,0 l/m 12,5 km/h (3 Bft) O-NO 61 3 min 1,8 UV-I 428 W/m 6,3 C 3,6 C 20,9 km/h (4 Bft)
11.10.2022 11:21 7,4 C 15,0 C 91 % 1028,5 hPa 0,0 l/m 12,7 km/h (3 Bft) NO 34 3 min 1,8 UV-I 446 W/m 6,0 C 3,1 C 17,7 km/h (3 Bft)
11.10.2022 11:24 7,2 C 14,4 C 91 % 1028,4 hPa 0,0 l/m 13,7 km/h (3 Bft) O-NO 65 3 min 1,8 UV-I 435 W/m 5,8 C 2,4 C 19,3 km/h (3 Bft)
11.10.2022 11:27 7,2 C 12,8 C 92 % 1028,3 hPa 0,0 l/m 11,3 km/h (2 Bft) NO 51 3 min 1,4 UV-I 408 W/m 6,0 C 3,7 C 17,7 km/h (3 Bft)
11.10.2022 11:30 7,1 C 11,7 C 91 % 1028,5 hPa 0,0 l/m 13,2 km/h (3 Bft) NO 56 0 min 1,5 UV-I 308 W/m 5,7 C 2,5 C 19,3 km/h (3 Bft)
11.10.2022 11:33 7,3 C 12,8 C 92 % 1028,5 hPa 0,0 l/m 9,6 km/h (2 Bft) O 79 0 min 1,5 UV-I 227 W/m 6,1 C 4,9 C 17,7 km/h (3 Bft)
11.10.2022 11:36 7,5 C 12,2 C 92 % 1028,5 hPa 0,0 l/m 8,5 km/h (2 Bft) NO 42 0 min 1,5 UV-I 339 W/m 6,3 C 5,9 C 14,5 km/h (3 Bft)
11.10.2022 11:39 7,5 C 12,2 C 92 % 1028,5 hPa 0,0 l/m 9,5 km/h (2 Bft) O-NO 67 0 min 1,4 UV-I 227 W/m 6,3 C 5,2 C 16,1 km/h (3 Bft)
11.10.2022 11:42 7,4 C 11,7 C 91 % 1028,6 hPa 0,0 l/m 11,9 km/h (2 Bft) NO 44 0 min 1,5 UV-I 353 W/m 6,0 C 3,6 C 16,1 km/h (3 Bft)
11.10.2022 11:45 7,4 C 11,7 C 91 % 1028,6 hPa 0,0 l/m 10,6 km/h (2 Bft) O-NO 74 0 min 1,6 UV-I 241 W/m 6,0 C 4,3 C 14,5 km/h (3 Bft)
11.10.2022 11:48 7,6 C 11,7 C 92 % 1028,6 hPa 0,0 l/m 7,5 km/h (2 Bft) NO 53 0 min 1,4 UV-I 206 W/m 6,4 C 6,7 C 12,9 km/h (3 Bft)
11.10.2022 11:51 7,7 C 12,8 C 91 % 1028,6 hPa 0,0 l/m 9,3 km/h (2 Bft) O-NO 64 0 min 1,5 UV-I 246 W/m 6,3 C 5,5 C 14,5 km/h (3 Bft)
11.10.2022 11:54 7,7 C 12,2 C 91 % 1028,6 hPa 0,0 l/m 7,6 km/h (2 Bft) O-NO 71 0 min 1,5 UV-I 257 W/m 6,3 C 6,7 C 11,3 km/h (2 Bft)
11.10.2022 11:57 8,1 C 13,3 C 91 % 1028,6 hPa 0,0 l/m 6,4 km/h (2 Bft) O-NO 60 0 min 1,6 UV-I 272 W/m 6,7 C 8,1 C 9,7 km/h (2 Bft)
11.10.2022 12:00 8,1 C 12,2 C 90 % 1028,7 hPa 0,0 l/m 8,9 km/h (2 Bft) NO 39 0 min 1,7 UV-I 240 W/m 6,6 C 6,2 C 12,9 km/h (3 Bft)
11.10.2022 12:03 8,2 C 12,8 C 90 % 1028,5 hPa 0,0 l/m 7,3 km/h (2 Bft) O 84 0 min 1,8 UV-I 298 W/m 6,7 C 7,5 C 16,1 km/h (3 Bft)
11.10.2022 12:06 8,4 C 13,9 C 89 % 1028,6 hPa 0,0 l/m 7,6 km/h (2 Bft) O-NO 73 0 min 1,9 UV-I 328 W/m 6,7 C 7,5 C 14,5 km/h (3 Bft)
11.10.2022 12:09 8,2 C 11,7 C 88 % 1028,6 hPa 0,0 l/m 9,3 km/h (2 Bft) NO 46 0 min 1,4 UV-I 198 W/m 6,3 C 6,1 C 14,5 km/h (3 Bft)
11.10.2022 12:12 8,1 C 11,1 C 88 % 1028,7 hPa 0,0 l/m 5,6 km/h (1 Bft) N-NO 17 0 min 1,5 UV-I 104 W/m 6,2 C 8,1 C 9,7 km/h (2 Bft)
11.10.2022 12:15 8,4 C 15,6 C 89 % 1028,6 hPa 0,0 l/m 5,0 km/h (1 Bft) NO 38 3 min 2,2 UV-I 474 W/m 6,7 C 8,4 C 9,7 km/h (2 Bft)
11.10.2022 12:18 8,9 C 18,3 C 88 % 1028,6 hPa 0,0 l/m 6,7 km/h (2 Bft) O-NO 61 3 min 2,4 UV-I 535 W/m 7,0 C 8,7 C 12,9 km/h (3 Bft)
11.10.2022 12:21 8,8 C 15,6 C 86 % 1028,7 hPa 0,0 l/m 9,0 km/h (2 Bft) O-NO 62 0 min 1,7 UV-I 301 W/m 6,6 C 6,9 C 14,5 km/h (3 Bft)
11.10.2022 12:24 9,2 C 18,3 C 86 % 1028,7 hPa 0,0 l/m 4,4 km/h (1 Bft) NO 37 3 min 2,4 UV-I 459 W/m 7,0 C 9,2 C 9,7 km/h (2 Bft)
11.10.2022 12:27 9,0 C 17,2 C 85 % 1028,6 hPa 0,0 l/m 8,9 km/h (2 Bft) O 91 3 min 2,1 UV-I 548 W/m 6,6 C 7,2 C 12,9 km/h (3 Bft)
11.10.2022 12:30 9,1 C 18,3 C 86 % 1028,5 hPa 0,0 l/m 7,7 km/h (2 Bft) O-NO 75 3 min 2,3 UV-I 553 W/m 6,9 C 8,1 C 12,9 km/h (3 Bft)
11.10.2022 12:33 9,4 C 18,9 C 85 % 1028,6 hPa 0,0 l/m 6,5 km/h (2 Bft) O-NO 69 3 min 2,2 UV-I 510 W/m 7,0 C 9,4 C 12,9 km/h (3 Bft)
11.10.2022 12:36 9,5 C 19,4 C 83 % 1028,5 hPa 0,0 l/m 7,7 km/h (2 Bft) O 82 3 min 2,5 UV-I 555 W/m 6,8 C 8,5 C 12,9 km/h (3 Bft)
11.10.2022 12:39 9,9 C 20,0 C 84 % 1028,6 hPa 0,0 l/m 7,2 km/h (2 Bft) O-NO 57 3 min 2,3 UV-I 550 W/m 7,3 C 9,3 C 16,1 km/h (3 Bft)
11.10.2022 12:42 10,0 C 21,1 C 81 % 1028,5 hPa 0,0 l/m 10,4 km/h (2 Bft) O-NO 74 3 min 2,6 UV-I 570 W/m 6,9 C 7,4 C 16,1 km/h (3 Bft)
11.10.2022 12:45 9,9 C 21,7 C 81 % 1028,6 hPa 0,0 l/m 8,5 km/h (2 Bft) N-NO 30 3 min 2,6 UV-I 563 W/m 6,8 C 8,4 C 16,1 km/h (3 Bft)
11.10.2022 12:48 10,1 C 21,1 C 81 % 1028,6 hPa 0,0 l/m 7,6 km/h (2 Bft) O-NO 59 3 min 2,4 UV-I 588 W/m 7,0 C 9,2 C 17,7 km/h (3 Bft)
11.10.2022 12:51 9,8 C 19,4 C 81 % 1028,6 hPa 0,0 l/m 8,7 km/h (2 Bft) NO 52 3 min 2,1 UV-I 573 W/m 6,7 C 8,2 C 16,1 km/h (3 Bft)
11.10.2022 12:54 9,9 C 19,4 C 79 % 1028,6 hPa 0,0 l/m 10,0 km/h (2 Bft) NO 54 0 min 2,4 UV-I 156 W/m 6,4 C 7,5 C 19,3 km/h (3 Bft)
11.10.2022 12:57 10,1 C 19,4 C 79 % 1028,6 hPa 0,0 l/m 12,8 km/h (3 Bft) O-NO 66 3 min 2,7 UV-I 412 W/m 6,6 C 6,2 C 19,3 km/h (3 Bft)
11.10.2022 13:00 10,1 C 21,7 C 78 % 1028,6 hPa 0,0 l/m 12,6 km/h (3 Bft) O-NO 74 3 min 2,7 UV-I 562 W/m 6,4 C 6,3 C 19,3 km/h (3 Bft)
11.10.2022 13:03 10,0 C 23,3 C 78 % 1028,5 hPa 0,0 l/m 13,8 km/h (3 Bft) O-NO 65 3 min 2,7 UV-I 559 W/m 6,3 C 5,7 C 19,3 km/h (3 Bft)
11.10.2022 13:06 10,1 C 23,9 C 78 % 1028,5 hPa 0,0 l/m 9,7 km/h (2 Bft) NO 44 3 min 2,7 UV-I 560 W/m 6,4 C 7,9 C 16,1 km/h (3 Bft)
11.10.2022 13:09 10,3 C 22,8 C 76 % 1028,5 hPa 0,0 l/m 9,4 km/h (2 Bft) O 82 3 min 2,7 UV-I 552 W/m 6,3 C 8,3 C 14,5 km/h (3 Bft)
11.10.2022 13:12 10,4 C 22,2 C 76 % 1028,5 hPa 0,0 l/m 10,0 km/h (2 Bft) O-NO 65 3 min 2,7 UV-I 557 W/m 6,4 C 8,0 C 14,5 km/h (3 Bft)
11.10.2022 13:15 10,4 C 23,9 C 76 % 1028,6 hPa 0,0 l/m 11,5 km/h (2 Bft) O-NO 57 3 min 2,7 UV-I 550 W/m 6,4 C 7,2 C 20,9 km/h (4 Bft)
11.10.2022 13:18 10,7 C 24,4 C 78 % 1028,4 hPa 0,0 l/m 7,0 km/h (2 Bft) O-NO 72 3 min 2,7 UV-I 545 W/m 7,0 C 10,3 C 11,3 km/h (2 Bft)
11.10.2022 13:21 10,8 C 24,4 C 75 % 1028,5 hPa 0,0 l/m 9,1 km/h (2 Bft) O-NO 70 3 min 2,7 UV-I 559 W/m 6,5 C 9,0 C 16,1 km/h (3 Bft)
11.10.2022 13:24 10,7 C 23,3 C 72 % 1028,4 hPa 0,0 l/m 14,5 km/h (3 Bft) O-NO 57 3 min 2,7 UV-I 555 W/m 5,9 C 6,2 C 20,9 km/h (4 Bft)
11.10.2022 13:27 10,4 C 22,2 C 73 % 1028,4 hPa 0,0 l/m 15,7 km/h (3 Bft) N-NO 27 3 min 2,7 UV-I 548 W/m 5,8 C 5,3 C 20,9 km/h (4 Bft)
11.10.2022 13:30 10,8 C 22,8 C 73 % 1028,3 hPa 0,0 l/m 9,6 km/h (2 Bft) NO 37 3 min 2,7 UV-I 544 W/m 6,2 C 8,7 C 19,3 km/h (3 Bft)
11.10.2022 13:33 10,8 C 23,3 C 72 % 1028,4 hPa 0,0 l/m 13,2 km/h (3 Bft) O-NO 70 3 min 2,6 UV-I 531 W/m 6,0 C 6,9 C 17,7 km/h (3 Bft)
11.10.2022 13:36 10,7 C 22,8 C 71 % 1028,4 hPa 0,0 l/m 12,4 km/h (3 Bft) NO 43 3 min 2,7 UV-I 548 W/m 5,7 C 7,1 C 17,7 km/h (3 Bft)
11.10.2022 13:39 10,8 C 23,3 C 73 % 1028,4 hPa 0,0 l/m 10,8 km/h (2 Bft) O-NO 64 3 min 2,7 UV-I 560 W/m 6,2 C 8,0 C 17,7 km/h (3 Bft)
11.10.2022 13:42 10,9 C 25,6 C 73 % 1028,4 hPa 0,0 l/m 9,3 km/h (2 Bft) O 94 3 min 2,7 UV-I 559 W/m 6,3 C 9,0 C 14,5 km/h (3 Bft)
11.10.2022 13:45 10,8 C 23,9 C 73 % 1028,4 hPa 0,0 l/m 11,0 km/h (2 Bft) O-NO 67 3 min 2,7 UV-I 558 W/m 6,2 C 7,9 C 19,3 km/h (3 Bft)
11.10.2022 13:48 11,0 C 24,4 C 72 % 1028,3 hPa 0,0 l/m 11,1 km/h (2 Bft) O 81 3 min 2,7 UV-I 554 W/m 6,2 C 8,1 C 19,3 km/h (3 Bft)
11.10.2022 13:51 11,1 C 23,9 C 71 % 1028,2 hPa 0,0 l/m 8,3 km/h (2 Bft) O-NO 74 3 min 2,7 UV-I 555 W/m 6,0 C 9,8 C 16,1 km/h (3 Bft)
11.10.2022 13:54 11,3 C 23,9 C 72 % 1028,1 hPa 0,0 l/m 8,8 km/h (2 Bft) O-NO 65 3 min 2,7 UV-I 556 W/m 6,4 C 9,7 C 17,7 km/h (3 Bft)
11.10.2022 13:57 11,2 C 23,9 C 71 % 1028,2 hPa 0,0 l/m 10,9 km/h (2 Bft) O-NO 70 3 min 2,7 UV-I 551 W/m 6,1 C 8,4 C 17,7 km/h (3 Bft)
11.10.2022 14:00 11,4 C 24,4 C 72 % 1028,1 hPa 0,0 l/m 9,1 km/h (2 Bft) NO 34 3 min 2,7 UV-I 549 W/m 6,5 C 9,6 C 16,1 km/h (3 Bft)
11.10.2022 14:03 11,2 C 23,9 C 70 % 1028,0 hPa 0,0 l/m 9,4 km/h (2 Bft) NO 56 3 min 2,7 UV-I 547 W/m 5,9 C 9,3 C 16,1 km/h (3 Bft)
11.10.2022 14:06 11,2 C 25,6 C 72 % 1028,0 hPa 0,0 l/m 8,6 km/h (2 Bft) O-NO 62 3 min 2,6 UV-I 546 W/m 6,3 C 9,7 C 19,3 km/h (3 Bft)
11.10.2022 14:09 11,3 C 24,4 C 70 % 1028,0 hPa 0,0 l/m 9,0 km/h (2 Bft) NO 50 3 min 2,6 UV-I 542 W/m 6,0 C 9,6 C 14,5 km/h (3 Bft)
11.10.2022 14:12 11,7 C 25,6 C 70 % 1028,0 hPa 0,0 l/m 7,5 km/h (2 Bft) NO 54 3 min 2,6 UV-I 544 W/m 6,4 C 11,0 C 12,9 km/h (3 Bft)
11.10.2022 14:15 11,7 C 26,1 C 70 % 1028,0 hPa 0,0 l/m 10,0 km/h (2 Bft) NO 44 3 min 2,6 UV-I 541 W/m 6,4 C 9,5 C 17,7 km/h (3 Bft)
11.10.2022 14:18 11,7 C 25,6 C 68 % 1027,9 hPa 0,0 l/m 10,9 km/h (2 Bft) N-NO 31 3 min 2,6 UV-I 541 W/m 6,0 C 9,0 C 17,7 km/h (3 Bft)
11.10.2022 14:21 11,7 C 26,1 C 68 % 1028,0 hPa 0,0 l/m 4,7 km/h (1 Bft) NO 49 3 min 2,6 UV-I 541 W/m 6,0 C 11,7 C 8,0 km/h (2 Bft)
11.10.2022 14:24 11,6 C 26,1 C 67 % 1028,0 hPa 0,0 l/m 7,6 km/h (2 Bft) O 81 3 min 2,6 UV-I 538 W/m 5,7 C 10,8 C 14,5 km/h (3 Bft)
11.10.2022 14:27 11,9 C 26,1 C 70 % 1027,9 hPa 0,0 l/m 5,6 km/h (1 Bft) O-NO 77 3 min 2,6 UV-I 538 W/m 6,6 C 11,9 C 9,7 km/h (2 Bft)
11.10.2022 14:30 12,1 C 26,7 C 69 % 1027,9 hPa 0,0 l/m 6,3 km/h (2 Bft) O 80 3 min 2,6 UV-I 536 W/m 6,6 C 12,1 C 12,9 km/h (3 Bft)
11.10.2022 14:33 11,9 C 25,6 C 68 % 1027,9 hPa 0,0 l/m 8,1 km/h (2 Bft) O 80 3 min 2,5 UV-I 533 W/m 6,2 C 10,8 C 14,5 km/h (3 Bft)
11.10.2022 14:36 11,9 C 26,7 C 70 % 1027,9 hPa 0,0 l/m 6,6 km/h (2 Bft) O 101 3 min 2,5 UV-I 528 W/m 6,6 C 11,8 C 12,9 km/h (3 Bft)
11.10.2022 14:39 11,8 C 24,4 C 68 % 1027,7 hPa 0,0 l/m 8,0 km/h (2 Bft) O-NO 74 3 min 2,5 UV-I 524 W/m 6,1 C 10,7 C 12,9 km/h (3 Bft)
11.10.2022 14:42 11,8 C 25,0 C 69 % 1027,7 hPa 0,0 l/m 7,0 km/h (2 Bft) N-NO 32 3 min 2,5 UV-I 521 W/m 6,3 C 11,4 C 14,5 km/h (3 Bft)
11.10.2022 14:45 12,0 C 26,1 C 67 % 1027,7 hPa 0,0 l/m 9,1 km/h (2 Bft) O-NO 65 3 min 2,5 UV-I 516 W/m 6,1 C 10,3 C 16,1 km/h (3 Bft)
11.10.2022 14:48 12,0 C 25,0 C 68 % 1027,7 hPa 0,0 l/m 9,0 km/h (2 Bft) N-NO 32 3 min 2,4 UV-I 512 W/m 6,3 C 10,4 C 14,5 km/h (3 Bft)
11.10.2022 14:51 11,8 C 25,6 C 68 % 1027,7 hPa 0,0 l/m 6,9 km/h (2 Bft) O-NO 63 3 min 2,4 UV-I 508 W/m 6,1 C 11,5 C 14,5 km/h (3 Bft)
11.10.2022 14:54 11,9 C 25,6 C 68 % 1027,6 hPa 0,0 l/m 7,8 km/h (2 Bft) O 92 3 min 2,4 UV-I 503 W/m 6,2 C 11,0 C 14,5 km/h (3 Bft)
11.10.2022 14:57 11,8 C 24,4 C 68 % 1027,7 hPa 0,0 l/m 8,6 km/h (2 Bft) O 92 3 min 2,3 UV-I 501 W/m 6,1 C 10,4 C 14,5 km/h (3 Bft)
11.10.2022 15:00 12,1 C 25,0 C 69 % 1027,6 hPa 0,0 l/m 8,2 km/h (2 Bft) O 83 3 min 2,3 UV-I 499 W/m 6,6 C 10,9 C 16,1 km/h (3 Bft)
11.10.2022 15:03 12,2 C 25,6 C 67 % 1027,5 hPa 0,0 l/m 9,1 km/h (2 Bft) N-NO 26 3 min 2,3 UV-I 493 W/m 6,3 C 10,5 C 14,5 km/h (3 Bft)
11.10.2022 15:06 11,9 C 24,4 C 66 % 1027,6 hPa 0,0 l/m 9,8 km/h (2 Bft) O-NO 69 3 min 2,2 UV-I 494 W/m 5,8 C 9,8 C 17,7 km/h (3 Bft)
11.10.2022 15:09 12,1 C 24,4 C 67 % 1027,6 hPa 0,0 l/m 5,4 km/h (1 Bft) NO 52 3 min 2,2 UV-I 490 W/m 6,2 C 12,1 C 11,3 km/h (2 Bft)
11.10.2022 15:12 12,1 C 25,6 C 66 % 1027,6 hPa 0,0 l/m 9,7 km/h (2 Bft) NO 34 3 min 2,2 UV-I 488 W/m 5,9 C 10,1 C 16,1 km/h (3 Bft)
11.10.2022 15:15 12,1 C 27,2 C 65 % 1027,6 hPa 0,0 l/m 6,6 km/h (2 Bft) O 82 3 min 2,2 UV-I 483 W/m 5,7 C 12,0 C 11,3 km/h (2 Bft)
11.10.2022 15:18 12,3 C 27,2 C 65 % 1027,6 hPa 0,0 l/m 8,0 km/h (2 Bft) NO 40 3 min 2,1 UV-I 480 W/m 5,9 C 11,3 C 11,3 km/h (2 Bft)
11.10.2022 15:21 12,2 C 27,8 C 65 % 1027,5 hPa 0,0 l/m 5,6 km/h (1 Bft) O-NO 75 3 min 2,1 UV-I 472 W/m 5,8 C 12,2 C 9,7 km/h (2 Bft)
11.10.2022 15:24 12,3 C 27,8 C 66 % 1027,7 hPa 0,0 l/m 9,5 km/h (2 Bft) NO 47 3 min 2,1 UV-I 474 W/m 6,1 C 10,4 C 14,5 km/h (3 Bft)
11.10.2022 15:27 12,1 C 27,2 C 66 % 1027,6 hPa 0,0 l/m 6,9 km/h (2 Bft) NO 52 3 min 1,9 UV-I 408 W/m 5,9 C 11,8 C 12,9 km/h (3 Bft)
11.10.2022 15:30 11,8 C 25,6 C 65 % 1027,6 hPa 0,0 l/m 8,4 km/h (2 Bft) N-NO 32 0 min 1,7 UV-I 310 W/m 5,4 C 10,5 C 16,1 km/h (3 Bft)
11.10.2022 15:33 11,6 C 21,1 C 67 % 1027,6 hPa 0,0 l/m 8,8 km/h (2 Bft) O-NO 76 0 min 1,5 UV-I 244 W/m 5,7 C 10,0 C 16,1 km/h (3 Bft)
11.10.2022 15:36 11,6 C 21,1 C 67 % 1027,6 hPa 0,0 l/m 7,9 km/h (2 Bft) O-NO 75 0 min 1,7 UV-I 349 W/m 5,7 C 10,6 C 12,9 km/h (3 Bft)
11.10.2022 15:39 11,7 C 22,2 C 66 % 1027,6 hPa 0,0 l/m 6,7 km/h (2 Bft) NO 39 3 min 1,7 UV-I 402 W/m 5,6 C 11,5 C 8,0 km/h (2 Bft)
11.10.2022 15:42 11,9 C 25,0 C 67 % 1027,6 hPa 0,0 l/m 6,2 km/h (2 Bft) O-NO 58 3 min 1,8 UV-I 419 W/m 6,0 C 11,9 C 9,7 km/h (2 Bft)
11.10.2022 15:45 11,8 C 23,3 C 66 % 1027,5 hPa 0,0 l/m 5,3 km/h (1 Bft) O-NO 57 3 min 1,8 UV-I 420 W/m 5,7 C 11,8 C 11,3 km/h (2 Bft)
11.10.2022 15:48 12,1 C 23,9 C 67 % 1027,6 hPa 0,0 l/m 8,0 km/h (2 Bft) O 92 3 min 1,8 UV-I 418 W/m 6,2 C 11,1 C 11,3 km/h (2 Bft)
11.10.2022 15:51 12,0 C 22,2 C 65 % 1027,5 hPa 0,0 l/m 8,9 km/h (2 Bft) O-NO 60 3 min 1,7 UV-I 420 W/m 5,6 C 10,4 C 14,5 km/h (3 Bft)
11.10.2022 15:54 12,1 C 23,9 C 64 % 1027,4 hPa 0,0 l/m 6,7 km/h (2 Bft) NO 38 3 min 1,7 UV-I 415 W/m 5,5 C 11,9 C 14,5 km/h (3 Bft)
11.10.2022 15:57 12,1 C 25,6 C 64 % 1027,4 hPa 0,0 l/m 8,0 km/h (2 Bft) O-NO 58 3 min 1,7 UV-I 408 W/m 5,5 C 11,1 C 14,5 km/h (3 Bft)
11.10.2022 16:00 12,2 C 25,6 C 62 % 1027,4 hPa 0,0 l/m 6,1 km/h (2 Bft) O-NO 67 3 min 1,6 UV-I 399 W/m 5,1 C 12,2 C 9,7 km/h (2 Bft)
11.10.2022 16:03 12,1 C 25,6 C 62 % 1027,4 hPa 0,0 l/m 6,5 km/h (2 Bft) NO 40 0 min 1,6 UV-I 395 W/m 5,0 C 12,1 C 9,7 km/h (2 Bft)
11.10.2022 16:06 12,2 C 25,6 C 64 % 1027,5 hPa 0,0 l/m 7,1 km/h (2 Bft) N-NO 33 0 min 1,4 UV-I 323 W/m 5,6 C 11,7 C 9,7 km/h (2 Bft)
11.10.2022 16:09 12,1 C 26,1 C 64 % 1027,5 hPa 0,0 l/m 3,7 km/h (1 Bft) N-NO 21 0 min 1,5 UV-I 351 W/m 5,5 C 12,1 C 8,0 km/h (2 Bft)
11.10.2022 16:12 12,3 C 26,7 C 63 % 1027,5 hPa 0,0 l/m 3,1 km/h (1 Bft) O 80 0 min 1,5 UV-I 375 W/m 5,5 C 12,3 C 6,4 km/h (2 Bft)
11.10.2022 16:15 12,4 C 26,7 C 64 % 1027,5 hPa 0,0 l/m 7,3 km/h (2 Bft) O-NO 74 0 min 1,4 UV-I 369 W/m 5,8 C 11,8 C 11,3 km/h (2 Bft)
11.10.2022 16:18 12,3 C 25,0 C 64 % 1027,5 hPa 0,0 l/m 8,3 km/h (2 Bft) O 82 0 min 1,4 UV-I 363 W/m 5,7 C 11,1 C 14,5 km/h (3 Bft)
11.10.2022 16:21 12,3 C 25,6 C 64 % 1027,4 hPa 0,0 l/m 8,1 km/h (2 Bft) NO 55 0 min 1,4 UV-I 356 W/m 5,7 C 11,2 C 16,1 km/h (3 Bft)
11.10.2022 16:24 12,3 C 26,1 C 65 % 1027,4 hPa 0,0 l/m 6,4 km/h (2 Bft) NO 55 0 min 1,3 UV-I 349 W/m 5,9 C 12,3 C 9,7 km/h (2 Bft)
11.10.2022 16:27 12,2 C 25,6 C 63 % 1027,4 hPa 0,0 l/m 8,0 km/h (2 Bft) O-NO 63 0 min 1,3 UV-I 341 W/m 5,4 C 11,2 C 14,5 km/h (3 Bft)
11.10.2022 16:30 12,2 C 20,6 C 65 % 1027,3 hPa 0,0 l/m 7,7 km/h (2 Bft) O-NO 65 0 min 1,3 UV-I 329 W/m 5,8 C 11,3 C 12,9 km/h (3 Bft)
11.10.2022 16:33 12,1 C 16,7 C 64 % 1027,4 hPa 0,0 l/m 10,2 km/h (2 Bft) NO 52 0 min 1,2 UV-I 314 W/m 5,5 C 9,8 C 16,1 km/h (3 Bft)
11.10.2022 16:36 12,0 C 16,1 C 64 % 1027,3 hPa 0,0 l/m 8,9 km/h (2 Bft) O 83 0 min 1,2 UV-I 305 W/m 5,4 C 10,4 C 14,5 km/h (3 Bft)
11.10.2022 16:39 12,1 C 18,9 C 64 % 1027,3 hPa 0,0 l/m 6,2 km/h (2 Bft) O-NO 69 0 min 1,1 UV-I 307 W/m 5,5 C 12,1 C 14,5 km/h (3 Bft)
11.10.2022 16:42 12,1 C 21,7 C 64 % 1027,4 hPa 0,0 l/m 7,2 km/h (2 Bft) O-NO 76 0 min 1,1 UV-I 305 W/m 5,5 C 11,6 C 11,3 km/h (2 Bft)
11.10.2022 16:45 12,2 C 23,3 C 63 % 1027,3 hPa 0,0 l/m 4,8 km/h (1 Bft) O-NO 58 0 min 1,1 UV-I 299 W/m 5,4 C 12,2 C 8,0 km/h (2 Bft)
11.10.2022 16:48 12,2 C 22,8 C 63 % 1027,3 hPa 0,0 l/m 7,3 km/h (2 Bft) O-NO 57 0 min 1,0 UV-I 292 W/m 5,4 C 11,6 C 12,9 km/h (3 Bft)
11.10.2022 16:51 12,2 C 23,9 C 63 % 1027,2 hPa 0,0 l/m 5,3 km/h (1 Bft) O 79 0 min 1,0 UV-I 284 W/m 5,4 C 12,2 C 11,3 km/h (2 Bft)
11.10.2022 16:54 12,1 C 22,2 C 62 % 1027,3 hPa 0,0 l/m 7,4 km/h (2 Bft) NO 56 0 min 0,9 UV-I 277 W/m 5,0 C 11,4 C 11,3 km/h (2 Bft)
11.10.2022 16:57 12,1 C 23,3 C 63 % 1027,3 hPa 0,0 l/m 5,1 km/h (1 Bft) O 82 0 min 0,9 UV-I 269 W/m 5,3 C 12,1 C 9,7 km/h (2 Bft)
11.10.2022 17:00 12,2 C 23,3 C 64 % 1027,3 hPa 0,0 l/m 3,5 km/h (1 Bft) O-NO 73 0 min 0,9 UV-I 261 W/m 5,6 C 12,2 C 8,0 km/h (2 Bft)
11.10.2022 17:03 12,2 C 23,9 C 64 % 1027,3 hPa 0,0 l/m 5,7 km/h (1 Bft) O 90 0 min 0,8 UV-I 254 W/m 5,6 C 12,2 C 8,0 km/h (2 Bft)
11.10.2022 17:06 12,2 C 23,9 C 65 % 1027,3 hPa 0,0 l/m 5,9 km/h (2 Bft) NO 42 0 min 0,8 UV-I 247 W/m 5,8 C 12,2 C 8,0 km/h (2 Bft)
11.10.2022 17:09 12,1 C 24,4 C 65 % 1027,3 hPa 0,0 l/m 5,7 km/h (1 Bft) NO 56 0 min 0,8 UV-I 239 W/m 5,7 C 12,1 C 8,0 km/h (2 Bft)
11.10.2022 17:12 12,0 C 23,3 C 66 % 1027,3 hPa 0,0 l/m 7,4 km/h (2 Bft) O-NO 61 0 min 0,7 UV-I 230 W/m 5,8 C 11,3 C 12,9 km/h (3 Bft)
11.10.2022 17:15 11,9 C 22,8 C 66 % 1027,3 hPa 0,0 l/m 8,7 km/h (2 Bft) O-NO 59 0 min 0,7 UV-I 222 W/m 5,8 C 10,4 C 14,5 km/h (3 Bft)
11.10.2022 17:18 11,8 C 22,2 C 66 % 1027,3 hPa 0,0 l/m 6,1 km/h (2 Bft) NO 50 0 min 0,7 UV-I 211 W/m 5,7 C 11,8 C 11,3 km/h (2 Bft)
11.10.2022 17:21 11,8 C 22,2 C 66 % 1027,2 hPa 0,0 l/m 7,6 km/h (2 Bft) N-NO 32 0 min 0,6 UV-I 201 W/m 5,7 C 11,0 C 14,5 km/h (3 Bft)
11.10.2022 17:24 11,7 C 22,2 C 66 % 1027,2 hPa 0,0 l/m 9,7 km/h (2 Bft) NO 44 0 min 0,6 UV-I 192 W/m 5,6 C 9,6 C 14,5 km/h (3 Bft)
11.10.2022 17:27 11,6 C 18,3 C 67 % 1027,2 hPa 0,0 l/m 7,8 km/h (2 Bft) NO 41 0 min 0,6 UV-I 182 W/m 5,7 C 10,7 C 12,9 km/h (3 Bft)
11.10.2022 17:30 11,7 C 16,7 C 67 % 1027,2 hPa 0,0 l/m 6,4 km/h (2 Bft) O-NO 67 0 min 0,5 UV-I 171 W/m 5,8 C 11,7 C 9,7 km/h (2 Bft)
11.10.2022 17:33 11,6 C 14,4 C 67 % 1027,2 hPa 0,0 l/m 5,2 km/h (1 Bft) NO 40 0 min 0,5 UV-I 161 W/m 5,7 C 11,6 C 9,7 km/h (2 Bft)
11.10.2022 17:36 11,6 C 13,9 C 67 % 1027,2 hPa 0,0 l/m 5,8 km/h (2 Bft) NO 34 0 min 0,5 UV-I 152 W/m 5,7 C 11,6 C 9,7 km/h (2 Bft)
11.10.2022 17:39 11,4 C 14,4 C 67 % 1027,3 hPa 0,0 l/m 7,8 km/h (2 Bft) N-NO 30 0 min 0,0 UV-I 142 W/m 5,5 C 10,5 C 12,9 km/h (3 Bft)
11.10.2022 17:42 11,3 C 17,2 C 68 % 1027,3 hPa 0,0 l/m 7,5 km/h (2 Bft) N-NO 27 0 min 0,0 UV-I 131 W/m 5,6 C 10,5 C 11,3 km/h (2 Bft)
11.10.2022 17:45 11,2 C 18,3 C 68 % 1027,3 hPa 0,0 l/m 5,0 km/h (1 Bft) N-NO 24 0 min 0,0 UV-I 124 W/m 5,5 C 11,2 C 8,0 km/h (2 Bft)
11.10.2022 17:48 11,1 C 18,3 C 69 % 1027,3 hPa 0,0 l/m 8,0 km/h (2 Bft) NO 43 0 min 0,0 UV-I 114 W/m 5,6 C 10,0 C 12,9 km/h (3 Bft)
11.10.2022 17:51 11,1 C 18,3 C 69 % 1027,2 hPa 0,0 l/m 9,3 km/h (2 Bft) NO 34 0 min 0,0 UV-I 106 W/m 5,6 C 9,2 C 14,5 km/h (3 Bft)
11.10.2022 17:54 10,9 C 18,3 C 69 % 1027,3 hPa 0,0 l/m 8,2 km/h (2 Bft) N-NO 22 0 min 0,0 UV-I 98 W/m 5,4 C 9,7 C 12,9 km/h (3 Bft)
11.10.2022 17:57 10,8 C 18,3 C 69 % 1027,2 hPa 0,0 l/m 9,8 km/h (2 Bft) N-NO 32 0 min 0,0 UV-I 88 W/m 5,3 C 8,6 C 14,5 km/h (3 Bft)
11.10.2022 18:00 10,7 C 17,8 C 70 % 1027,2 hPa 0,0 l/m 6,5 km/h (2 Bft) N-NO 20 0 min 0,0 UV-I 80 W/m 5,5 C 10,7 C 8,0 km/h (2 Bft)
11.10.2022 18:03 10,5 C 16,1 C 70 % 1027,3 hPa 0,0 l/m 5,3 km/h (1 Bft) N-NO 28 0 min 0,0 UV-I 72 W/m 5,3 C 10,5 C 8,0 km/h (2 Bft)
11.10.2022 18:06 10,3 C 14,4 C 71 % 1027,2 hPa 0,0 l/m 5,6 km/h (1 Bft) N-NO 28 0 min 0,0 UV-I 64 W/m 5,3 C 10,3 C 8,0 km/h (2 Bft)
11.10.2022 18:09 10,2 C 11,7 C 72 % 1027,2 hPa 0,0 l/m 8,3 km/h (2 Bft) N-NO 28 0 min 0,0 UV-I 37 W/m 5,4 C 8,9 C 14,5 km/h (3 Bft)
11.10.2022 18:12 10,1 C 10,6 C 72 % 1027,1 hPa 0,0 l/m 7,3 km/h (2 Bft) N 5 0 min 0,0 UV-I 27 W/m 5,3 C 9,4 C 12,9 km/h (3 Bft)
11.10.2022 18:15 9,8 C 9,4 C 73 % 1027,1 hPa 0,0 l/m 6,6 km/h (2 Bft) N-NO 13 0 min 0,0 UV-I 24 W/m 5,2 C 9,7 C 11,3 km/h (2 Bft)
11.10.2022 18:18 9,6 C 8,3 C 74 % 1027,0 hPa 0,0 l/m 5,1 km/h (1 Bft) N 10 0 min 0,0 UV-I 22 W/m 5,2 C 9,6 C 8,0 km/h (2 Bft)
11.10.2022 18:21 9,4 C 7,8 C 74 % 1027,2 hPa 0,0 l/m 5,7 km/h (1 Bft) N-NO 20 0 min 0,0 UV-I 19 W/m 5,0 C 9,4 C 8,0 km/h (2 Bft)
11.10.2022 18:24 9,3 C 7,2 C 75 % 1027,1 hPa 0,0 l/m 6,1 km/h (2 Bft) N-NO 19 0 min 0,0 UV-I 18 W/m 5,1 C 9,3 C 11,3 km/h (2 Bft)
11.10.2022 18:27 9,2 C 6,7 C 75 % 1027,1 hPa 0,0 l/m 5,6 km/h (1 Bft) N-NO 20 0 min 0,0 UV-I 16 W/m 5,0 C 9,2 C 8,0 km/h (2 Bft)
11.10.2022 18:30 9,0 C 6,7 C 76 % 1027,1 hPa 0,0 l/m 6,2 km/h (2 Bft) N 11 0 min 0,0 UV-I 15 W/m 5,0 C 9,0 C 8,0 km/h (2 Bft)
11.10.2022 18:33 8,9 C 6,7 C 76 % 1027,1 hPa 0,0 l/m 8,4 km/h (2 Bft) N-NO 23 0 min 0,0 UV-I 13 W/m 4,9 C 7,4 C 12,9 km/h (3 Bft)
11.10.2022 18:36 8,8 C 6,1 C 76 % 1027,1 hPa 0,0 l/m 5,9 km/h (2 Bft) N-NO 22 0 min 0,0 UV-I 12 W/m 4,8 C 8,8 C 9,7 km/h (2 Bft)
11.10.2022 18:39 8,6 C 6,1 C 76 % 1027,1 hPa 0,0 l/m 6,9 km/h (2 Bft) N-NO 15 0 min 0,0 UV-I 11 W/m 4,6 C 8,2 C 11,3 km/h (2 Bft)
11.10.2022 18:42 8,4 C 5,6 C 77 % 1027,2 hPa 0,0 l/m 5,5 km/h (1 Bft) N-NO 13 0 min 0,0 UV-I 9 W/m 4,6 C 8,4 C 8,0 km/h (2 Bft)
11.10.2022 18:45 8,3 C 5,6 C 78 % 1027,1 hPa 0,0 l/m 5,4 km/h (1 Bft) N 11 0 min 0,0 UV-I 7 W/m 4,7 C 8,3 C 8,0 km/h (2 Bft)
11.10.2022 18:48 8,3 C 5,6 C 77 % 1027,1 hPa 0,0 l/m 5,6 km/h (1 Bft) N-NO 17 0 min 0,0 UV-I 6 W/m 4,5 C 8,3 C 8,0 km/h (2 Bft)
11.10.2022 18:51 8,1 C 5,0 C 77 % 1027,1 hPa 0,0 l/m 5,2 km/h (1 Bft) N-NO 19 0 min 0,0 UV-I 5 W/m 4,3 C 8,1 C 6,4 km/h (2 Bft)
11.10.2022 18:54 7,8 C 5,0 C 78 % 1027,1 hPa 0,0 l/m 3,6 km/h (1 Bft) N-NO 19 0 min 0,0 UV-I 0 W/m 4,2 C 7,8 C 6,4 km/h (2 Bft)
11.10.2022 18:57 7,7 C 5,0 C 79 % 1027,1 hPa 0,0 l/m 1,6 km/h (1 Bft) N-NO 19 0 min 0,0 UV-I 0 W/m 4,3 C 7,7 C 3,2 km/h (1 Bft)
11.10.2022 19:00 7,7 C 5,0 C 80 % 1027,1 hPa 0,0 l/m 1,2 km/h (1 Bft) N-NO 19 0 min 0,0 UV-I 0 W/m 4,5 C 7,7 C 3,2 km/h (1 Bft)
11.10.2022 19:03 7,6 C 5,0 C 81 % 1027,2 hPa 0,0 l/m 0,0 km/h (0 Bft) N-NO 19 0 min 0,0 UV-I 0 W/m 4,6 C 7,6 C 0,0 km/h (0 Bft)
11.10.2022 19:06 7,6 C 5,0 C 80 % 1027,2 hPa 0,0 l/m 0,0 km/h (0 Bft) N-NO 19 0 min 0,0 UV-I 0 W/m 4,4 C 7,6 C 0,0 km/h (0 Bft)
11.10.2022 19:09 7,6 C 4,4 C 81 % 1027,2 hPa 0,0 l/m 0,0 km/h (0 Bft) N-NO 19 0 min 0,0 UV-I 0 W/m 4,6 C 7,6 C 0,0 km/h (0 Bft)
11.10.2022 19:12 7,6 C 4,4 C 80 % 1027,2 hPa 0,0 l/m 0,0 km/h (0 Bft) N-NO 19 0 min 0,0 UV-I 0 W/m 4,4 C 7,6 C 0,0 km/h (0 Bft)
11.10.2022 19:15 7,4 C 4,4 C 81 % 1027,3 hPa 0,0 l/m 0,0 km/h (0 Bft) N-NO 19 0 min 0,0 UV-I 0 W/m 4,4 C 7,4 C 0,0 km/h (0 Bft)
11.10.2022 19:18 7,2 C 4,4 C 81 % 1027,3 hPa 0,0 l/m 0,0 km/h (0 Bft) N-NO 19 0 min 0,0 UV-I 0 W/m 4,2 C 7,2 C 0,0 km/h (0 Bft)
11.10.2022 19:21 7,2 C 4,4 C 81 % 1027,3 hPa 0,0 l/m 0,0 km/h (0 Bft) N-NO 19 0 min 0,0 UV-I 0 W/m 4,2 C 7,2 C 0,0 km/h (0 Bft)
11.10.2022 19:24 7,2 C 3,9 C 82 % 1027,3 hPa 0,0 l/m 0,0 km/h (0 Bft) N-NO 19 0 min 0,0 UV-I 0 W/m 4,3 C 7,2 C 0,0 km/h (0 Bft)
11.10.2022 19:27 7,0 C 3,9 C 82 % 1027,4 hPa 0,0 l/m 0,0 km/h (0 Bft) N-NO 19 0 min 0,0 UV-I 0 W/m 4,1 C 7,0 C 0,0 km/h (0 Bft)
11.10.2022 19:30 6,9 C 3,9 C 82 % 1027,4 hPa 0,0 l/m 0,0 km/h (0 Bft) N-NO 19 0 min 0,0 UV-I 0 W/m 4,0 C 6,9 C 0,0 km/h (0 Bft)
11.10.2022 19:33 6,8 C 3,9 C 82 % 1027,4 hPa 0,0 l/m 0,0 km/h (0 Bft) N-NO 19 0 min 0,0 UV-I 0 W/m 3,9 C 6,8 C 0,0 km/h (0 Bft)
11.10.2022 19:36 6,8 C 3,9 C 82 % 1027,4 hPa 0,0 l/m 2,2 km/h (1 Bft) N-NO 19 0 min 0,0 UV-I 0 W/m 3,9 C 6,8 C 4,8 km/h (1 Bft)
11.10.2022 19:39 6,7 C 3,9 C 82 % 1027,3 hPa 0,0 l/m 3,4 km/h (1 Bft) N-NO 19 0 min 0,0 UV-I 0 W/m 3,8 C 6,7 C 4,8 km/h (1 Bft)
11.10.2022 19:42 6,6 C 3,3 C 83 % 1027,4 hPa 0,0 l/m 4,7 km/h (1 Bft) N-NO 14 0 min 0,0 UV-I 0 W/m 3,9 C 6,6 C 6,4 km/h (2 Bft)
11.10.2022 19:45 6,4 C 3,3 C 83 % 1027,4 hPa 0,0 l/m 4,1 km/h (1 Bft) N-NO 14 0 min 0,0 UV-I 0 W/m 3,7 C 6,4 C 6,4 km/h (2 Bft)
11.10.2022 19:48 6,0 C 3,3 C 83 % 1027,4 hPa 0,0 l/m 0,6 km/h (0 Bft) N-NO 14 0 min 0,0 UV-I 0 W/m 3,3 C 6,0 C 3,2 km/h (1 Bft)
11.10.2022 19:51 5,6 C 2,8 C 83 % 1027,4 hPa 0,0 l/m 1,5 km/h (1 Bft) N-NO 14 0 min 0,0 UV-I 0 W/m 2,9 C 5,6 C 3,2 km/h (1 Bft)
11.10.2022 19:54 5,3 C 2,8 C 84 % 1027,4 hPa 0,0 l/m 0,9 km/h (0 Bft) N-NO 14 0 min 0,0 UV-I 0 W/m 2,8 C 5,3 C 1,6 km/h (1 Bft)
11.10.2022 19:57 5,2 C 2,8 C 85 % 1027,4 hPa 0,0 l/m 0,0 km/h (0 Bft) N-NO 14 0 min 0,0 UV-I 0 W/m 2,9 C 5,2 C 0,0 km/h (0 Bft)
11.10.2022 20:00 5,2 C 2,8 C 86 % 1027,3 hPa 0,0 l/m 0,0 km/h (0 Bft) N-NO 14 0 min 0,0 UV-I 0 W/m 3,1 C 5,2 C 0,0 km/h (0 Bft)
11.10.2022 20:03 5,1 C 2,2 C 86 % 1027,4 hPa 0,0 l/m 0,0 km/h (0 Bft) N-NO 14 0 min 0,0 UV-I 0 W/m 3,0 C 5,1 C 0,0 km/h (0 Bft)
11.10.2022 20:06 5,1 C 2,8 C 86 % 1027,4 hPa 0,0 l/m 0,0 km/h (0 Bft) N-NO 14 0 min 0,0 UV-I 0 W/m 3,0 C 5,1 C 0,0 km/h (0 Bft)
11.10.2022 20:09 4,9 C 2,2 C 87 % 1027,4 hPa 0,0 l/m 0,0 km/h (0 Bft) N-NO 14 0 min 0,0 UV-I 0 W/m 2,9 C 4,9 C 0,0 km/h (0 Bft)
11.10.2022 20:12 4,8 C 2,2 C 87 % 1027,4 hPa 0,0 l/m 0,0 km/h (0 Bft) N-NO 14 0 min 0,0 UV-I 0 W/m 2,8 C 4,8 C 0,0 km/h (0 Bft)
11.10.2022 20:15 4,8 C 2,8 C 87 % 1027,4 hPa 0,0 l/m 0,0 km/h (0 Bft) N-NO 14 0 min 0,0 UV-I 0 W/m 2,8 C 4,8 C 0,0 km/h (0 Bft)
11.10.2022 20:18 4,8 C 2,8 C 88 % 1027,4 hPa 0,0 l/m 0,0 km/h (0 Bft) N-NO 14 0 min 0,0 UV-I 0 W/m 3,0 C 4,8 C 0,0 km/h (0 Bft)
11.10.2022 20:21 4,8 C 2,2 C 88 % 1027,4 hPa 0,0 l/m 0,0 km/h (0 Bft) N-NO 14 0 min 0,0 UV-I 0 W/m 3,0 C 4,8 C 1,6 km/h (1 Bft)
11.10.2022 20:24 4,9 C 2,2 C 88 % 1027,4 hPa 0,0 l/m 0,0 km/h (0 Bft) N-NO 14 0 min 0,0 UV-I 0 W/m 3,1 C 4,9 C 0,0 km/h (0 Bft)
11.10.2022 20:27 4,7 C 2,2 C 87 % 1027,4 hPa 0,0 l/m 0,0 km/h (0 Bft) N-NO 14 0 min 0,0 UV-I 0 W/m 2,7 C 4,7 C 0,0 km/h (0 Bft)
11.10.2022 20:30 4,4 C 1,7 C 87 % 1027,4 hPa 0,0 l/m 0,0 km/h (0 Bft) N-NO 14 0 min 0,0 UV-I 0 W/m 2,4 C 4,4 C 0,0 km/h (0 Bft)
11.10.2022 20:33 4,3 C 1,7 C 88 % 1027,4 hPa 0,0 l/m 0,0 km/h (0 Bft) N-NO 14 0 min 0,0 UV-I 0 W/m 2,5 C 4,3 C 0,0 km/h (0 Bft)
11.10.2022 20:36 4,2 C 1,7 C 88 % 1027,5 hPa 0,0 l/m 0,0 km/h (0 Bft) N-NO 14 0 min 0,0 UV-I 0 W/m 2,4 C 4,2 C 0,0 km/h (0 Bft)
11.10.2022 20:39 4,1 C 1,7 C 88 % 1027,4 hPa 0,0 l/m 0,0 km/h (0 Bft) N-NO 14 0 min 0,0 UV-I 0 W/m 2,3 C 4,1 C 0,0 km/h (0 Bft)
11.10.2022 20:42 3,9 C 1,1 C 88 % 1027,3 hPa 0,0 l/m 0,0 km/h (0 Bft) N-NO 14 0 min 0,0 UV-I 0 W/m 2,1 C 3,9 C 0,0 km/h (0 Bft)
11.10.2022 20:45 3,8 C 1,7 C 89 % 1027,5 hPa 0,0 l/m 0,0 km/h (0 Bft) N-NO 14 0 min 0,0 UV-I 0 W/m 2,2 C 3,8 C 0,0 km/h (0 Bft)
11.10.2022 20:48 4,0 C 1,7 C 89 % 1027,4 hPa 0,0 l/m 0,0 km/h (0 Bft) N-NO 14 0 min 0,0 UV-I 0 W/m 2,4 C 4,0 C 0,0 km/h (0 Bft)
11.10.2022 20:51 3,8 C 1,7 C 89 % 1027,4 hPa 0,0 l/m 0,0 km/h (0 Bft) N-NO 14 0 min 0,0 UV-I 0 W/m 2,2 C 3,8 C 0,0 km/h (0 Bft)
11.10.2022 20:54 3,7 C 1,1 C 89 % 1027,4 hPa 0,0 l/m 0,0 km/h (0 Bft) N-NO 14 0 min 0,0 UV-I 0 W/m 2,1 C 3,7 C 0,0 km/h (0 Bft)
11.10.2022 20:57 3,7 C 1,1 C 89 % 1027,5 hPa 0,0 l/m 0,0 km/h (0 Bft) N-NO 14 0 min 0,0 UV-I 0 W/m 2,1 C 3,7 C 0,0 km/h (0 Bft)
11.10.2022 21:00 3,4 C 1,1 C 88 % 1027,4 hPa 0,0 l/m 0,0 km/h (0 Bft) N-NO 14 0 min 0,0 UV-I 0 W/m 1,6 C 3,4 C 0,0 km/h (0 Bft)
11.10.2022 21:03 3,3 C 1,1 C 89 % 1027,5 hPa 0,0 l/m 0,0 km/h (0 Bft) N-NO 14 0 min 0,0 UV-I 0 W/m 1,7 C 3,3 C 0,0 km/h (0 Bft)
11.10.2022 21:06 3,3 C 1,1 C 89 % 1027,6 hPa 0,0 l/m 0,3 km/h (0 Bft) N-NO 14 0 min 0,0 UV-I 0 W/m 1,7 C 3,3 C 1,6 km/h (1 Bft)
11.10.2022 21:09 3,3 C 1,1 C 89 % 1027,6 hPa 0,0 l/m 0,3 km/h (0 Bft) N-NO 14 0 min 0,0 UV-I 0 W/m 1,7 C 3,3 C 1,6 km/h (1 Bft)
11.10.2022 21:12 3,2 C 1,1 C 89 % 1027,5 hPa 0,0 l/m 0,0 km/h (0 Bft) N-NO 14 0 min 0,0 UV-I 0 W/m 1,6 C 3,2 C 0,0 km/h (0 Bft)
11.10.2022 21:15 3,1 C 1,1 C 89 % 1027,6 hPa 0,0 l/m 0,0 km/h (0 Bft) N-NO 14 0 min 0,0 UV-I 0 W/m 1,5 C 3,1 C 0,0 km/h (0 Bft)
11.10.2022 21:18 3,1 C 0,6 C 90 % 1027,6 hPa 0,0 l/m 0,0 km/h (0 Bft) N-NO 14 0 min 0,0 UV-I 0 W/m 1,6 C 3,1 C 0,0 km/h (0 Bft)
11.10.2022 21:21 3,0 C 0,6 C 89 % 1027,7 hPa 0,0 l/m 0,0 km/h (0 Bft) N-NO 14 0 min 0,0 UV-I 0 W/m 1,4 C 3,0 C 0,0 km/h (0 Bft)
11.10.2022 21:24 2,9 C 0,6 C 90 % 1027,6 hPa 0,0 l/m 0,0 km/h (0 Bft) N-NO 14 0 min 0,0 UV-I 0 W/m 1,4 C 2,9 C 0,0 km/h (0 Bft)
11.10.2022 21:27 2,8 C 0,6 C 90 % 1027,6 hPa 0,0 l/m 0,0 km/h (0 Bft) N-NO 14 0 min 0,0 UV-I 0 W/m 1,3 C 2,8 C 0,0 km/h (0 Bft)
11.10.2022 21:30 3,1 C 0,6 C 90 % 1027,7 hPa 0,0 l/m 0,0 km/h (0 Bft) N-NO 14 0 min 0,0 UV-I 0 W/m 1,6 C 3,1 C 0,0 km/h (0 Bft)
11.10.2022 21:33 3,2 C 0,6 C 90 % 1027,7 hPa 0,0 l/m 0,0 km/h (0 Bft) N-NO 14 0 min 0,0 UV-I 0 W/m 1,7 C 3,2 C 0,0 km/h (0 Bft)
11.10.2022 21:36 3,1 C 0,6 C 90 % 1027,7 hPa 0,0 l/m 0,0 km/h (0 Bft) N-NO 14 0 min 0,0 UV-I 0 W/m 1,6 C 3,1 C 0,0 km/h (0 Bft)
11.10.2022 21:39 2,9 C 0,0 C 90 % 1027,8 hPa 0,0 l/m 0,0 km/h (0 Bft) N-NO 14 0 min 0,0 UV-I 0 W/m 1,4 C 2,9 C 0,0 km/h (0 Bft)
11.10.2022 21:42 2,4 C 0,0 C 89 % 1027,8 hPa 0,0 l/m 0,0 km/h (0 Bft) N-NO 14 0 min 0,0 UV-I 0 W/m 0,8 C 2,4 C 0,0 km/h (0 Bft)
11.10.2022 21:45 2,1 C 0,0 C 89 % 1027,9 hPa 0,0 l/m 0,3 km/h (0 Bft) N-NO 14 0 min 0,0 UV-I 0 W/m 0,5 C 2,1 C 1,6 km/h (1 Bft)
11.10.2022 21:48 2,4 C 0,0 C 91 % 1027,9 hPa 0,0 l/m 2,4 km/h (1 Bft) N-NO 13 0 min 0,0 UV-I 0 W/m 1,1 C 2,4 C 3,2 km/h (1 Bft)
11.10.2022 21:51 2,5 C 0,6 C 90 % 1027,8 hPa 0,0 l/m 2,1 km/h (1 Bft) N-NO 12 0 min 0,0 UV-I 0 W/m 1,0 C 2,5 C 3,2 km/h (1 Bft)
11.10.2022 21:54 2,6 C 0,6 C 90 % 1027,7 hPa 0,0 l/m 1,7 km/h (1 Bft) N-NO 12 0 min 0,0 UV-I 0 W/m 1,1 C 2,6 C 3,2 km/h (1 Bft)
11.10.2022 21:57 2,5 C 0,0 C 90 % 1027,9 hPa 0,0 l/m 0,5 km/h (0 Bft) N-NO 12 0 min 0,0 UV-I 0 W/m 1,0 C 2,5 C 3,2 km/h (1 Bft)
11.10.2022 22:00 2,2 C 0,0 C 90 % 1028,0 hPa 0,0 l/m 0,0 km/h (0 Bft) N-NO 12 0 min 0,0 UV-I 0 W/m 0,7 C 2,2 C 0,0 km/h (0 Bft)
11.10.2022 22:03 1,9 C 0,0 C 90 % 1028,0 hPa 0,0 l/m 0,0 km/h (0 Bft) N-NO 12 0 min 0,0 UV-I 0 W/m 0,4 C 1,9 C 0,0 km/h (0 Bft)
11.10.2022 22:06 1,8 C 0,0 C 90 % 1027,8 hPa 0,0 l/m 0,0 km/h (0 Bft) N-NO 12 0 min 0,0 UV-I 0 W/m 0,3 C 1,8 C 0,0 km/h (0 Bft)
11.10.2022 22:09 1,8 C 0,0 C 90 % 1027,8 hPa 0,0 l/m 0,0 km/h (0 Bft) N-NO 12 0 min 0,0 UV-I 0 W/m 0,3 C 1,8 C 0,0 km/h (0 Bft)
11.10.2022 22:12 2,0 C 0,0 C 91 % 1027,7 hPa 0,0 l/m 0,0 km/h (0 Bft) N-NO 12 0 min 0,0 UV-I 0 W/m 0,7 C 2,0 C 0,0 km/h (0 Bft)
11.10.2022 22:15 2,1 C 0,0 C 91 % 1027,9 hPa 0,0 l/m 0,0 km/h (0 Bft) N-NO 12 0 min 0,0 UV-I 0 W/m 0,8 C 2,1 C 0,0 km/h (0 Bft)
11.10.2022 22:18 2,2 C 0,0 C 91 % 1027,8 hPa 0,0 l/m 0,0 km/h (0 Bft) N-NO 12 0 min 0,0 UV-I 0 W/m 0,9 C 2,2 C 0,0 km/h (0 Bft)
11.10.2022 22:21 2,1 C 0,0 C 91 % 1027,8 hPa 0,0 l/m 0,0 km/h (0 Bft) N-NO 12 0 min 0,0 UV-I 0 W/m 0,8 C 2,1 C 0,0 km/h (0 Bft)
11.10.2022 22:24 1,8 C -0,6 C 90 % 1027,8 hPa 0,0 l/m 0,0 km/h (0 Bft) N-NO 12 0 min 0,0 UV-I 0 W/m 0,3 C 1,8 C 0,0 km/h (0 Bft)
11.10.2022 22:27 1,7 C -0,6 C 91 % 1027,9 hPa 0,0 l/m 0,0 km/h (0 Bft) N-NO 12 0 min 0,0 UV-I 0 W/m 0,4 C 1,7 C 0,0 km/h (0 Bft)
11.10.2022 22:30 1,3 C -0,6 C 90 % 1027,9 hPa 0,0 l/m 0,0 km/h (0 Bft) N-NO 12 0 min 0,0 UV-I 0 W/m -0,2 C 1,3 C 0,0 km/h (0 Bft)
11.10.2022 22:33 1,2 C -0,6 C 90 % 1027,7 hPa 0,0 l/m 0,0 km/h (0 Bft) N-NO 12 0 min 0,0 UV-I 0 W/m -0,3 C 1,2 C 0,0 km/h (0 Bft)
11.10.2022 22:36 1,4 C -0,6 C 91 % 1027,6 hPa 0,0 l/m 0,0 km/h (0 Bft) N-NO 12 0 min 0,0 UV-I 0 W/m 0,1 C 1,4 C 0,0 km/h (0 Bft)
11.10.2022 22:39 1,4 C -0,6 C 91 % 1027,7 hPa 0,0 l/m 0,0 km/h (0 Bft) N-NO 12 0 min 0,0 UV-I 0 W/m 0,1 C 1,4 C 0,0 km/h (0 Bft)
11.10.2022 22:42 1,4 C -0,6 C 91 % 1027,7 hPa 0,0 l/m 0,0 km/h (0 Bft) N-NO 12 0 min 0,0 UV-I 0 W/m 0,1 C 1,4 C 0,0 km/h (0 Bft)
11.10.2022 22:45 1,4 C -0,6 C 91 % 1027,7 hPa 0,0 l/m 0,0 km/h (0 Bft) N-NO 12 0 min 0,0 UV-I 0 W/m 0,1 C 1,4 C 0,0 km/h (0 Bft)
11.10.2022 22:48 1,5 C -0,6 C 91 % 1027,7 hPa 0,0 l/m 0,0 km/h (0 Bft) N-NO 12 0 min 0,0 UV-I 0 W/m 0,2 C 1,5 C 0,0 km/h (0 Bft)
11.10.2022 22:51 1,6 C -0,6 C 91 % 1027,7 hPa 0,0 l/m 0,0 km/h (0 Bft) N-NO 12 0 min 0,0 UV-I 0 W/m 0,3 C 1,6 C 0,0 km/h (0 Bft)
11.10.2022 22:54 1,5 C -1,1 C 91 % 1027,6 hPa 0,0 l/m 0,0 km/h (0 Bft) N-NO 12 0 min 0,0 UV-I 0 W/m 0,2 C 1,5 C 0,0 km/h (0 Bft)
11.10.2022 22:57 1,0 C -1,1 C 90 % 1027,7 hPa 0,0 l/m 0,0 km/h (0 Bft) N-NO 12 0 min 0,0 UV-I 0 W/m -0,5 C 1,0 C 0,0 km/h (0 Bft)
11.10.2022 23:00 0,8 C -1,1 C 91 % 1027,6 hPa 0,0 l/m 0,0 km/h (0 Bft) N-NO 12 0 min 0,0 UV-I 0 W/m -0,5 C 0,8 C 0,0 km/h (0 Bft)
11.10.2022 23:03 1,0 C -1,1 C 91 % 1027,7 hPa 0,0 l/m 0,0 km/h (0 Bft) N-NO 12 0 min 0,0 UV-I 0 W/m -0,3 C 1,0 C 0,0 km/h (0 Bft)
11.10.2022 23:06 1,0 C -0,6 C 91 % 1027,7 hPa 0,0 l/m 0,0 km/h (0 Bft) N-NO 12 0 min 0,0 UV-I 0 W/m -0,3 C 1,0 C 0,0 km/h (0 Bft)
11.10.2022 23:09 0,9 C -1,1 C 91 % 1027,6 hPa 0,0 l/m 0,0 km/h (0 Bft) N-NO 12 0 min 0,0 UV-I 0 W/m -0,4 C 0,9 C 0,0 km/h (0 Bft)
11.10.2022 23:12 0,9 C -1,1 C 91 % 1027,6 hPa 0,0 l/m 0,0 km/h (0 Bft) N-NO 12 0 min 0,0 UV-I 0 W/m -0,4 C 0,9 C 0,0 km/h (0 Bft)
11.10.2022 23:15 0,9 C -1,1 C 91 % 1027,6 hPa 0,0 l/m 0,0 km/h (0 Bft) N-NO 12 0 min 0,0 UV-I 0 W/m -0,4 C 0,9 C 0,0 km/h (0 Bft)
11.10.2022 23:18 0,9 C -1,1 C 91 % 1027,6 hPa 0,0 l/m 0,0 km/h (0 Bft) N-NO 12 0 min 0,0 UV-I 0 W/m -0,4 C 0,9 C 0,0 km/h (0 Bft)
11.10.2022 23:21 0,9 C -1,1 C 91 % 1027,6 hPa 0,0 l/m 0,0 km/h (0 Bft) N-NO 12 0 min 0,0 UV-I 0 W/m -0,4 C 0,9 C 0,0 km/h (0 Bft)
11.10.2022 23:24 0,8 C -1,7 C 91 % 1027,5 hPa 0,0 l/m 0,0 km/h (0 Bft) N-NO 12 0 min 0,0 UV-I 0 W/m -0,5 C 0,8 C 0,0 km/h (0 Bft)
11.10.2022 23:27 0,7 C -1,1 C 91 % 1027,4 hPa 0,0 l/m 0,0 km/h (0 Bft) N-NO 12 0 min 0,0 UV-I 0 W/m -0,6 C 0,7 C 0,0 km/h (0 Bft)
11.10.2022 23:30 0,6 C -1,1 C 91 % 1027,6 hPa 0,0 l/m 0,0 km/h (0 Bft) N-NO 12 0 min 0,0 UV-I 0 W/m -0,7 C 0,6 C 0,0 km/h (0 Bft)
11.10.2022 23:33 0,5 C -1,1 C 91 % 1027,4 hPa 0,0 l/m 0,0 km/h (0 Bft) N-NO 12 0 min 0,0 UV-I 0 W/m -0,8 C 0,5 C 0,0 km/h (0 Bft)
11.10.2022 23:36 0,4 C -1,1 C 91 % 1027,4 hPa 0,0 l/m 0,0 km/h (0 Bft) N-NO 12 0 min 0,0 UV-I 0 W/m -0,9 C 0,4 C 0,0 km/h (0 Bft)
11.10.2022 23:39 0,3 C -1,1 C 91 % 1027,4 hPa 0,0 l/m 0,0 km/h (0 Bft) N-NO 12 0 min 0,0 UV-I 0 W/m -1,0 C 0,3 C 0,0 km/h (0 Bft)
11.10.2022 23:42 0,3 C -1,7 C 91 % 1027,4 hPa 0,0 l/m 0,0 km/h (0 Bft) N-NO 12 0 min 0,0 UV-I 0 W/m -1,0 C 0,3 C 0,0 km/h (0 Bft)
11.10.2022 23:45 0,2 C -1,7 C 91 % 1027,4 hPa 0,0 l/m 0,0 km/h (0 Bft) N-NO 12 0 min 0,0 UV-I 0 W/m -1,1 C 0,2 C 0,0 km/h (0 Bft)
11.10.2022 23:48 0,3 C -1,7 C 92 % 1027,5 hPa 0,0 l/m 0,0 km/h (0 Bft) N-NO 12 0 min 0,0 UV-I 0 W/m -0,8 C 0,3 C 0,0 km/h (0 Bft)
11.10.2022 23:51 0,2 C -1,7 C 91 % 1027,4 hPa 0,0 l/m 0,0 km/h (0 Bft) N-NO 12 0 min 0,0 UV-I 0 W/m -1,1 C 0,2 C 0,0 km/h (0 Bft)
11.10.2022 23:54 0,3 C -1,1 C 91 % 1027,4 hPa 0,0 l/m 0,0 km/h (0 Bft) N-NO 12 0 min 0,0 UV-I 0 W/m -1,0 C 0,3 C 0,0 km/h (0 Bft)
11.10.2022 23:57 0,3 C -1,1 C 92 % 1027,4 hPa 0,0 l/m 0,2 km/h (0 Bft) N-NO 12 0 min 0,0 UV-I 0 W/m -0,8 C 0,3 C 1,6 km/h (1 Bft)
_ Min-Zeit 08:09 23:24 16:00 00:00 - 03:18 - - - - - 08:09 08:09 03:18
Minimum _ -0,3 C -1,7 C 62 % 1024,8 hPa - 0,0 km/h (0 Bft) - - - - - -1,3 C -0,3 C 0,0 km/h (0 Bft)
_ Max-Zeit 16:12 15:21 09:42 12:00 00:00 00:18 - - 11:09 12:57 12:48 12:39 16:24 00:30
Maximum _ 12,4 C 27,8 C 95 % 1028,7 hPa 0,0 l/m 17,9 km/h
N (3 Bft)
- - 3 min 2,7 UV-I 588 W/m 7,3 C 12,3 C 27,4 km/h
N-NW (4 Bft)
Durchschnitt _ 5,9 C 7,8 C 85 % 1027,2 hPa #0,0 l/m 4,1 km/h (1 Bft) N-NO - #3:54 h 1,7 UV-I 276 W/m 3,5 C 5,3 C 6,8 km/h (2 Bft)